<- Previous Day | Today | Next Day ->

All Data for 13 February 2024

 

Time A - D Temp A - D Dew Point A - D Humidity A - D Pressure A - D Wind A - D Wind Dir Gust A - D Rain Rate A - D Rain Total
00:00 7.0 5.3 89 1013.4 5.4 SW 7.6 0.0 0.0
00:01 6.9 5.2 89 1013.4 4.5 SE 7.6 0.0 0.0
00:02 6.8 5.1 89 1013.3 5.4 S 7.6 0.0 0.0
00:03 6.8 5.1 89 1013.4 5.4 SW 6.9 0.0 0.0
00:04 6.8 5.1 89 1013.4 5.4 SSW 6.9 0.0 0.0
00:05 6.8 5.1 89 1013.3 4.5 SW 5.4 0.0 0.0
00:06 6.7 5.0 89 1013.5 6.0 S 6.0 0.0 0.0
00:07 6.7 5.0 89 1013.5 8.3 SW 8.3 0.0 0.0
00:09 6.7 5.0 89 1013.4 8.3 S 8.3 0.0 0.0
00:10 6.7 5.0 89 1013.4 8.3 SW 8.3 0.0 0.0
00:11 6.7 5.0 89 1013.3 9.8 S 9.8 0.0 0.0
00:12 6.6 4.9 89 1013.4 9.2 SSW 9.8 0.0 0.0
00:13 6.7 5.0 89 1013.4 6.9 S 9.8 0.0 0.0
00:14 6.7 5.0 89 1013.7 8.3 SW 9.8 0.0 0.0
00:15 6.7 5.0 89 1013.4 7.6 SW 9.8 0.0 0.0
00:16 6.7 5.0 89 1013.4 7.6 SW 9.8 0.0 0.0
00:17 6.7 5.0 89 1013.2 7.6 S 9.8 0.0 0.0
00:18 6.7 5.0 89 1013.3 5.4 SW 9.8 0.0 0.0
00:19 6.7 5.0 89 1013.6 5.4 SW 9.8 0.0 0.0
00:20 6.7 5.0 89 1013.4 4.5 WSW 9.8 0.0 0.0
00:21 6.7 5.0 89 1013.5 5.4 WSW 9.2 0.0 0.0
00:22 6.8 5.1 89 1013.3 5.4 SW 9.2 0.0 0.0
00:23 6.8 5.1 89 1013.5 6.0 SSW 8.3 0.0 0.0
00:24 6.8 5.1 89 1013.5 5.4 S 7.6 0.0 0.0
00:25 6.8 5.1 89 1013.6 4.5 SW 7.6 0.0 0.0
00:27 6.8 5.1 89 1013.4 5.4 SW 6.0 0.0 0.0
00:28 6.8 5.1 89 1013.2 3.8 WSW 6.0 0.0 0.0
00:29 6.8 5.1 89 1013.5 3.8 W 6.0 0.0 0.0
00:30 6.8 5.3 90 1013.3 3.1 SW 6.0 0.0 0.0
00:31 6.8 5.3 90 1013.2 3.1 SW 6.0 0.0 0.0
00:32 6.8 5.3 90 1013.3 3.8 SW 6.0 0.0 0.0
00:33 6.8 5.3 90 1013.2 3.1 SW 6.0 0.0 0.0
00:34 6.8 5.3 90 1013.3 3.1 SW 5.4 0.0 0.0
00:35 6.8 5.3 90 1013.3 3.1 W 5.4 0.0 0.0
00:36 6.8 5.3 90 1013.1 4.5 SW 5.4 0.0 0.0
00:37 6.8 5.3 90 1013.2 1.6 SW 5.4 0.0 0.0
00:38 6.8 5.3 90 1013.1 2.2 SW 4.5 0.0 0.0
00:39 6.8 5.3 90 1013.3 2.2 S 4.5 0.0 0.0
00:40 6.8 5.3 90 1013.1 2.2 S 4.5 0.0 0.0
00:41 6.7 5.2 90 1013.0 1.6 SW 4.5 0.0 0.0
00:42 6.7 5.2 90 1013.1 1.6 W 4.5 0.0 0.0
00:43 6.7 5.2 90 1012.9 0.7 W 4.5 0.0 0.0
00:44 6.7 5.2 90 1013.0 0.7 SW 4.5 0.0 0.0
00:46 6.7 5.2 90 1013.1 0.7 W 3.1 0.0 0.0
00:47 6.7 5.2 90 1013.2 0.0 S 2.2 0.0 0.0
00:48 6.7 5.2 90 1013.2 0.0 S 2.2 0.0 0.0
00:49 6.7 5.2 90 1013.0 0.7 SW 2.2 0.0 0.0
00:50 6.7 5.2 90 1013.0 0.7 SW 2.2 0.0 0.0
00:51 6.7 5.2 90 1013.0 0.7 SW 1.6 0.0 0.0
00:52 6.7 5.2 90 1013.0 1.6 SSW 1.6 0.0 0.0
00:53 6.7 5.2 90 1012.9 0.7 SSW 1.6 0.0 0.0
00:54 6.7 5.2 90 1012.9 1.6 SE 1.6 0.0 0.0
00:55 6.7 5.2 90 1012.9 1.6 SW 1.6 0.8 0.1
00:56 6.7 5.2 90 1012.9 1.6 SE 1.6 0.8 0.1
00:57 6.7 5.2 90 1013.0 1.6 S 1.6 0.8 0.1
00:58 6.7 5.2 90 1013.0 0.7 S 1.6 0.8 0.1
00:59 6.7 5.2 90 1013.1 0.7 SW 1.6 0.8 0.1
01:00 6.7 5.2 90 1012.9 0.7 SW 1.6 0.0 0.1
01:01 6.7 5.2 90 1012.8 0.7 SW 1.6 0.0 0.1
01:02 6.7 5.2 90 1012.9 0.7 SW 1.6 0.0 0.1
01:04 6.7 5.2 90 1012.9 0.7 SW 1.6 0.0 0.1
01:05 6.7 5.2 90 1012.8 0.7 SW 1.6 0.0 0.1
01:06 6.7 5.2 90 1012.6 1.6 NE 1.6 0.0 0.1
01:07 6.7 5.2 90 1012.6 1.6 N 1.6 0.0 0.1
01:08 6.7 5.2 90 1012.8 1.6 SSE 1.6 0.0 0.1
01:09 6.7 5.2 90 1012.8 1.6 S 1.6 0.0 0.1
01:10 6.7 5.3 91 1012.7 2.2 SE 2.2 0.0 0.1
01:11 6.7 5.3 91 1012.7 3.1 SSE 3.1 0.0 0.1
01:12 6.7 5.3 91 1012.7 1.6 S 3.1 0.0 0.1
01:13 6.7 5.3 91 1012.7 1.6 SE 3.1 0.0 0.1
01:14 6.7 5.3 91 1012.8 1.6 SW 3.1 0.0 0.1
01:15 6.8 5.4 91 1012.7 2.2 SE 3.1 0.0 0.1
01:16 6.8 5.4 91 1012.6 3.8 SE 3.8 0.0 0.1
01:17 6.8 5.4 91 1012.6 3.8 SSE 3.8 0.0 0.1
01:18 6.8 5.4 91 1012.7 4.5 SE 4.5 0.0 0.1
01:19 6.8 5.4 91 1012.5 4.5 SE 4.5 0.0 0.1
01:20 6.8 5.4 91 1012.6 3.8 SE 4.5 0.0 0.1
01:21 6.8 5.4 91 1012.7 3.8 SE 4.5 0.0 0.1
01:23 6.8 5.4 91 1012.5 3.8 SE 4.5 0.0 0.1
01:24 6.8 5.4 91 1012.5 3.8 SE 4.5 0.0 0.1
01:25 6.9 5.5 91 1012.6 3.1 SSE 4.5 0.0 0.1
01:26 6.9 5.5 91 1012.6 3.1 S 4.5 0.0 0.1
01:27 6.9 5.5 91 1012.6 2.2 S 4.5 0.0 0.1
01:28 6.9 5.5 91 1012.6 2.2 S 4.5 0.0 0.1
01:29 6.9 5.5 91 1012.4 0.7 W 4.5 0.0 0.1
01:30 6.9 5.5 91 1012.5 0.0 W 3.8 0.0 0.1
01:31 6.9 5.5 91 1012.5 0.7 SW 3.8 0.0 0.1
01:32 6.9 5.5 91 1012.6 1.6 S 3.8 0.0 0.1
01:33 6.9 5.5 91 1012.5 3.1 SE 3.8 0.0 0.1
01:34 7.0 5.6 91 1012.6 2.2 S 3.1 0.0 0.1
01:35 7.0 5.6 91 1012.4 3.1 SE 3.1 0.0 0.1
01:36 7.0 5.6 91 1012.5 3.8 SE 3.8 0.0 0.1
01:37 7.0 5.6 91 1012.7 3.8 SE 3.8 0.0 0.1
01:39 7.0 5.6 91 1012.7 4.5 S 5.4 0.0 0.1
01:40 7.0 5.6 91 1012.5 4.5 S 5.4 0.0 0.1
01:41 7.0 5.6 91 1012.6 3.8 S 5.4 0.0 0.1
01:42 7.0 5.6 91 1012.8 3.8 SSE 5.4 0.0 0.1
01:43 7.0 5.6 91 1012.3 3.8 SSE 5.4 0.0 0.1
01:44 7.1 5.7 91 1012.2 6.0 S 6.0 0.0 0.1
01:45 7.1 5.7 91 1012.6 7.6 SE 7.6 0.0 0.1
01:46 7.1 5.7 91 1012.6 4.5 SSE 7.6 0.0 0.1
01:47 7.1 5.7 91 1012.4 5.4 SE 7.6 0.0 0.1
01:48 7.1 5.7 91 1012.6 4.5 S 7.6 0.0 0.1
01:49 7.2 6.0 92 1012.7 3.1 S 7.6 0.0 0.1
01:50 7.2 6.0 92 1012.4 3.1 S 7.6 0.0 0.1
01:51 7.2 6.0 92 1012.6 4.5 SW 7.6 0.0 0.1
01:52 7.2 6.0 92 1012.4 5.4 SW 7.6 0.0 0.1
01:53 7.2 6.0 92 1012.4 5.4 SW 7.6 0.0 0.1
01:54 7.2 6.0 92 1012.5 2.2 S 7.6 0.0 0.1
01:55 7.3 6.1 92 1012.5 4.5 SE 5.4 0.0 0.1
01:57 7.3 6.1 92 1012.4 3.1 WSW 5.4 0.0 0.1
01:58 7.3 6.1 92 1012.5 2.2 S 5.4 0.0 0.1
01:59 7.3 6.1 92 1012.4 2.2 S 5.4 0.0 0.1
02:00 7.3 6.1 92 1012.4 3.8 SE 5.4 0.0 0.1
02:01 7.3 6.1 92 1012.3 3.8 S 5.4 0.0 0.1
02:02 7.3 6.1 92 1012.2 4.5 SE 5.4 0.0 0.1
02:03 7.3 6.1 92 1012.4 3.8 S 5.4 0.0 0.1
02:04 7.3 6.1 92 1012.3 3.8 S 4.5 0.0 0.1
02:05 7.3 6.1 92 1012.3 6.0 SE 6.0 0.0 0.1
02:06 7.3 6.1 92 1012.5 6.0 S 6.0 0.0 0.1
02:07 7.4 6.2 92 1012.4 4.5 SE 6.0 0.0 0.1
02:08 7.4 6.2 92 1012.4 4.5 E 6.0 0.0 0.1
02:09 7.4 6.2 92 1012.2 4.5 E 6.0 0.0 0.1
02:10 7.4 6.2 92 1012.4 2.2 SE 6.0 0.0 0.1
02:11 7.4 6.0 91 1012.4 3.8 SSE 6.0 0.0 0.1
02:13 7.4 6.0 91 1012.3 2.2 SSE 6.0 0.0 0.1
02:14 7.4 6.0 91 1012.3 3.1 SE 6.0 0.0 0.1
02:15 7.4 6.0 91 1012.4 3.1 SE 6.0 0.0 0.1
02:16 7.4 6.0 91 1012.4 3.1 SSE 6.0 0.0 0.1
02:17 7.4 6.0 91 1012.2 3.8 SE 4.5 0.0 0.1
02:18 7.4 6.0 91 1012.3 3.8 S 4.5 0.0 0.1
02:19 7.4 6.0 91 1012.3 3.8 S 4.5 0.0 0.1
02:20 7.5 5.3 86 1012.2 3.1 SE 4.5 0.0 0.1
02:21 7.5 5.3 86 1012.2 3.1 SE 4.5 0.0 0.1
02:22 7.5 5.3 86 1012.2 3.8 S 4.5 0.0 0.1
02:23 7.5 5.3 86 1012.3 3.8 S 4.5 0.0 0.1
02:24 7.5 5.3 86 1012.4 3.8 S 5.4 0.0 0.1
02:25 7.5 5.3 86 1012.4 4.5 SSE 5.4 0.0 0.1
02:26 7.6 5.4 86 1012.3 3.8 SE 5.4 0.0 0.1
02:27 7.6 5.4 86 1012.2 4.5 SE 5.4 0.0 0.1
02:28 7.6 5.4 86 1012.2 4.5 SE 5.4 0.0 0.1
02:29 7.6 5.4 86 1012.3 5.4 SE 5.4 0.0 0.1
02:30 7.6 5.4 86 1012.3 5.4 S 5.4 0.0 0.1
02:32 7.6 5.4 86 1012.2 5.4 SSE 5.4 0.0 0.1
02:33 7.6 5.4 86 1012.2 5.4 SSE 5.4 0.0 0.1
02:34 7.6 5.4 86 1012.2 4.5 SE 5.4 0.0 0.1
02:35 7.7 5.5 86 1012.2 4.5 S 5.4 0.0 0.1
02:36 7.7 5.5 86 1012.2 3.8 S 5.4 0.0 0.1
02:37 7.7 5.3 85 1012.3 6.0 SSE 6.0 0.0 0.1
02:38 7.7 5.3 85 1012.3 6.0 S 6.0 0.0 0.1
02:39 7.7 5.3 85 1012.3 5.4 SE 6.0 0.0 0.1
02:40 7.7 5.3 85 1012.4 4.5 S 6.0 0.0 0.1
02:41 7.7 5.3 85 1012.1 3.8 S 6.0 0.0 0.1
02:42 7.7 5.3 85 1012.2 5.4 SE 6.0 0.0 0.1
02:43 7.7 5.3 85 1012.3 5.4 SE 6.0 0.0 0.1
02:44 7.7 5.3 85 1012.1 3.8 SE 6.0 0.0 0.1
02:45 7.8 5.4 85 1012.3 5.4 S 6.0 0.0 0.1
02:46 7.8 5.4 85 1012.4 4.5 S 6.0 0.0 0.1
02:47 7.8 5.4 85 1012.0 4.5 SE 6.0 0.0 0.1
02:48 7.8 5.4 85 1012.2 4.5 SE 5.4 0.0 0.1
02:49 7.8 5.4 85 1012.1 6.0 SE 6.0 0.0 0.1
02:51 7.8 5.4 85 1012.2 4.5 S 6.0 0.0 0.1
02:52 7.8 5.4 85 1012.2 4.5 S 6.0 0.0 0.1
02:53 7.8 5.4 85 1012.2 6.0 SE 6.0 0.0 0.1
02:54 7.8 5.4 85 1012.2 5.4 E 6.0 0.0 0.1
02:55 7.8 5.4 85 1012.0 5.4 E 6.0 0.0 0.1
02:56 7.8 5.4 85 1012.1 5.4 E 6.0 0.0 0.1
02:57 7.9 5.5 85 1012.1 5.4 SE 6.0 0.0 0.1
02:58 7.9 5.5 85 1012.3 6.0 S 6.0 0.0 0.1
02:59 7.9 5.5 85 1012.2 6.0 S 6.0 0.0 0.1
03:00 7.9 5.5 85 1012.1 6.9 SW 6.9 0.0 0.1
03:01 7.9 5.5 85 1012.0 6.9 SW 6.9 0.0 0.1
03:02 7.9 5.5 85 1012.1 6.9 SW 6.9 0.0 0.1
03:03 7.9 5.5 85 1012.1 6.9 SW 6.9 0.0 0.1
03:04 7.9 5.5 85 1011.9 6.9 SW 6.9 0.0 0.1
03:05 7.9 5.5 85 1011.9 6.9 SW 6.9 0.0 0.1
03:06 8.0 5.6 85 1012.0 10.7 SSE 10.7 0.0 0.1
03:07 8.0 5.6 85 1012.0 7.6 SW 10.7 0.0 0.1
03:09 8.0 5.6 85 1011.8 8.3 SSW 10.7 0.0 0.1
03:10 8.0 5.6 85 1011.9 8.3 SSW 10.7 0.0 0.1
03:11 8.0 5.6 85 1011.9 8.3 SSE 10.7 0.0 0.1
03:12 8.0 5.8 86 1011.9 6.9 S 10.7 0.0 0.1
03:13 8.0 5.8 86 1011.7 5.4 S 10.7 0.0 0.1
03:14 8.0 5.8 86 1011.9 5.4 S 10.7 0.0 0.1
03:15 8.0 5.8 86 1011.9 7.6 S 10.7 0.0 0.1
03:16 8.0 5.8 86 1012.0 7.6 SW 10.7 0.0 0.1
03:17 8.0 5.8 86 1011.8 6.0 S 8.3 0.0 0.1
03:18 8.0 5.8 86 1011.8 6.0 SSE 8.3 0.0 0.1
03:19 8.0 5.8 86 1011.6 7.6 SSW 8.3 0.0 0.1
03:20 8.0 5.8 86 1011.7 5.4 SE 8.3 0.0 0.1
03:21 8.0 5.8 86 1011.6 5.4 S 7.6 0.0 0.1
03:22 8.0 5.8 86 1011.7 6.0 SSE 7.6 0.0 0.1
03:23 8.0 5.8 86 1011.9 6.0 SSE 7.6 0.0 0.1
03:24 8.0 6.0 87 1011.8 9.8 SW 9.8 0.0 0.1
03:25 8.0 6.0 87 1011.8 9.8 SW 9.8 0.0 0.1
03:27 8.0 6.0 87 1011.8 12.1 S 12.1 0.0 0.1
03:28 8.0 6.0 87 1011.6 9.2 S 12.1 0.0 0.1
03:29 8.0 6.0 87 1011.7 11.4 S 12.1 0.0 0.1
03:30 8.0 6.0 87 1011.7 11.4 S 12.1 0.0 0.1
03:31 8.0 6.0 87 1011.6 9.2 S 12.1 0.0 0.1
03:32 8.0 6.0 87 1011.5 9.2 S 12.1 0.0 0.1
03:33 8.0 6.0 87 1011.7 9.2 S 12.1 0.0 0.1
03:34 8.0 6.0 87 1011.5 9.2 S 12.1 0.0 0.1
03:35 8.0 6.0 87 1011.6 9.2 SE 12.1 0.0 0.1
03:36 8.0 6.0 87 1011.6 9.8 S 12.1 0.0 0.1
03:37 8.0 6.1 88 1011.6 9.8 S 12.1 0.0 0.1
03:38 8.0 6.1 88 1011.6 8.3 SSE 11.4 0.0 0.1
03:39 8.0 6.1 88 1011.5 10.7 S 11.4 0.0 0.1
03:40 8.0 6.1 88 1011.5 10.7 S 10.7 0.0 0.1
03:41 8.0 6.1 88 1011.5 9.8 S 10.7 0.0 0.1
03:42 8.0 6.1 88 1011.6 8.3 S 10.7 0.0 0.1
03:44 8.1 6.2 88 1011.4 9.8 S 10.7 0.0 0.1
03:45 8.1 6.2 88 1011.5 7.6 S 10.7 0.0 0.1
03:46 8.1 6.2 88 1011.6 8.3 SE 10.7 0.0 0.1
03:47 8.1 6.2 88 1011.6 8.3 S 10.7 0.0 0.1
03:48 8.1 6.2 88 1011.3 6.0 S 10.7 0.0 0.1
03:49 8.1 6.2 88 1011.1 8.3 SE 10.7 0.0 0.1
03:50 8.1 6.2 88 1011.6 7.6 S 10.7 0.0 0.1
03:51 8.1 6.2 88 1011.4 9.2 S 9.8 0.0 0.1
03:52 8.1 6.4 89 1011.6 7.6 S 9.8 0.0 0.1
03:53 8.1 6.4 89 1011.3 6.9 S 9.8 0.0 0.1
03:54 8.1 6.4 89 1011.3 6.9 S 9.8 0.0 0.1
03:55 8.1 6.4 89 1011.1 6.0 SE 9.2 0.0 0.1
03:56 8.1 6.4 89 1011.3 6.0 SW 9.2 0.0 0.1
03:57 8.1 6.4 89 1011.4 9.2 S 9.2 0.0 0.1
03:58 8.1 6.4 89 1011.2 8.3 SE 9.2 0.0 0.1
03:59 8.1 6.4 89 1011.3 8.3 S 9.2 0.0 0.1
04:00 8.1 6.4 89 1011.2 7.6 S 9.2 0.0 0.1
04:02 8.1 6.4 89 1011.2 7.6 S 9.2 0.0 0.1
04:03 8.1 6.4 89 1011.2 7.6 S 9.2 0.0 0.1
04:04 8.1 6.4 89 1011.4 7.6 S 9.2 0.0 0.1
04:05 8.1 6.4 89 1011.2 9.8 S 13.0 0.0 0.1
04:06 8.1 6.4 89 1011.3 6.9 S 13.0 0.0 0.1
04:07 8.1 6.4 89 1011.3 6.9 S 13.0 0.0 0.1
04:08 8.1 6.4 89 1010.9 8.3 E 13.0 0.0 0.1
04:09 8.1 6.4 89 1011.2 7.6 S 13.0 0.0 0.1
04:10 8.1 6.4 89 1011.3 8.3 S 13.0 0.0 0.1
04:11 8.1 6.4 89 1011.1 8.3 S 13.0 0.0 0.1
04:12 8.1 6.4 89 1011.0 6.0 SE 13.0 0.0 0.1
04:13 8.1 6.4 89 1011.3 6.0 SW 13.0 0.0 0.1
04:14 8.0 6.3 89 1011.2 6.9 SW 13.0 0.0 0.1
04:15 8.0 6.3 89 1011.1 8.3 SSW 8.3 0.0 0.1
04:16 8.0 6.3 89 1011.1 8.3 SE 8.3 0.0 0.1
04:17 8.0 6.3 89 1011.1 6.9 SSE 8.3 0.0 0.1
04:18 8.0 6.3 89 1011.1 7.6 SSW 8.3 0.0 0.1
04:19 8.0 6.3 89 1011.1 6.0 S 8.3 0.0 0.1
04:21 8.0 6.3 89 1011.1 6.0 E 8.3 0.0 0.1
04:22 8.0 6.3 89 1011.2 5.4 S 8.3 0.0 0.1
04:23 8.0 6.3 89 1011.2 8.3 S 8.3 0.0 0.1
04:24 8.0 6.3 89 1010.9 8.3 SSE 8.3 0.0 0.1
04:25 8.0 6.3 89 1010.9 7.6 S 8.3 0.0 0.1
04:26 8.0 6.3 89 1011.2 7.6 S 8.3 0.0 0.1
04:27 8.0 6.3 89 1011.0 7.6 S 8.3 0.0 0.1
04:28 8.0 6.3 89 1010.9 6.9 S 8.3 0.0 0.1
04:29 8.0 6.3 89 1011.1 7.6 SE 8.3 0.0 0.1
04:30 8.0 6.3 89 1011.2 7.6 S 8.3 0.0 0.1
04:31 7.9 6.2 89 1011.1 6.9 S 8.3 0.0 0.1
04:32 7.9 6.2 89 1010.9 9.2 S 9.2 0.0 0.1
04:33 7.9 6.2 89 1011.2 9.2 SE 9.2 0.0 0.1
04:34 7.9 6.2 89 1011.0 6.0 S 9.2 0.8 0.1
04:35 7.9 6.2 89 1010.9 9.2 S 9.2 0.8 0.1
04:36 8.0 6.3 89 1010.9 12.1 S 12.1 0.8 0.1
04:37 8.0 6.3 89 1010.9 10.7 S 12.1 0.8 0.1
04:38 8.0 6.3 89 1010.8 13.6 SE 13.6 0.8 0.2
04:40 8.0 6.5 90 1010.9 10.7 SW 13.6 0.8 0.2
04:41 8.0 6.5 90 1010.9 9.2 SE 13.6 0.8 0.2
04:42 8.0 6.5 90 1010.8 13.0 S 13.6 0.8 0.2
04:43 8.0 6.5 90 1010.7 13.0 S 13.6 0.8 0.2
04:44 8.0 6.5 90 1010.8 13.0 S 13.6 0.0 0.2
04:45 8.0 6.5 90 1011.0 13.0 SE 13.6 0.8 0.3
04:46 8.0 6.5 90 1010.7 11.4 SSE 13.6 0.8 0.3
04:47 8.0 6.5 90 1010.8 9.8 SE 13.6 0.8 0.3
04:48 8.0 6.5 90 1010.8 12.1 S 13.6 0.8 0.3
04:49 8.0 6.5 90 1010.7 7.6 S 13.0 0.8 0.3
04:50 8.0 6.5 90 1010.7 7.6 S 13.0 0.0 0.3
04:51 8.0 6.6 91 1010.7 9.8 S 13.0 0.0 0.3
04:52 8.0 6.6 91 1010.7 9.8 S 13.0 0.0 0.3
04:53 8.0 6.6 91 1010.7 10.7 S 13.0 0.0 0.3
04:54 8.0 6.6 91 1010.6 9.8 S 13.0 0.8 0.3
04:55 8.0 6.6 91 1010.6 9.8 S 12.1 0.8 0.3
04:56 8.0 6.6 91 1010.5 9.2 S 12.1 0.8 0.3
04:57 8.0 6.6 91 1010.4 9.2 SE 12.1 0.8 0.3
04:59 8.0 6.6 91 1010.3 11.4 SE 11.4 0.0 0.3
05:00 8.0 6.6 91 1010.3 11.4 SE 11.4 0.0 0.3
05:01 8.0 6.6 91 1010.5 11.4 SE 11.4 0.0 0.3
05:02 8.0 6.6 91 1010.5 11.4 SE 11.4 0.0 0.3
05:03 8.0 6.6 91 1010.5 11.4 SE 11.4 0.0 0.3
05:04 8.0 6.6 91 1010.3 11.4 SE 11.4 0.0 0.3
05:05 8.0 6.6 91 1010.4 11.4 SE 11.4 0.0 0.3
05:06 8.0 6.8 92 1010.5 9.2 SE 11.4 0.0 0.3
05:07 8.0 6.8 92 1010.4 7.6 SW 11.4 0.0 0.3
05:08 8.0 6.8 92 1010.5 7.6 S 11.4 0.0 0.3
05:09 8.0 6.8 92 1010.4 9.2 SSE 11.4 0.0 0.3
05:10 8.1 6.9 92 1010.6 7.6 S 11.4 0.0 0.3
05:11 8.1 6.9 92 1010.2 6.9 S 11.4 0.0 0.3
05:12 8.1 6.9 92 1010.3 8.3 S 11.4 0.0 0.3
05:13 8.1 6.9 92 1010.5 9.2 S 11.4 0.0 0.3
05:14 8.1 7.0 93 1010.2 9.2 S 11.4 0.0 0.3
05:15 8.1 7.0 93 1010.4 9.2 S 9.2 0.0 0.3
05:16 8.1 7.0 93 1010.3 9.8 S 9.8 0.0 0.3
05:18 8.1 7.0 93 1010.3 9.8 S 10.7 0.0 0.3
05:19 8.1 7.0 93 1010.3 9.8 S 10.7 0.0 0.3
05:20 8.1 7.0 93 1010.3 9.8 S 10.7 0.0 0.3
05:21 8.1 7.0 93 1010.5 8.3 SE 10.7 0.0 0.3
05:22 8.1 7.0 93 1010.4 7.6 S 10.7 0.0 0.3
05:23 8.1 7.0 93 1010.3 13.0 SE 13.0 0.0 0.3
05:24 8.1 7.0 93 1010.3 13.0 S 13.0 0.0 0.3
05:25 8.1 7.2 94 1010.2 10.7 SSE 13.0 0.0 0.3
05:26 8.2 7.3 94 1010.3 9.2 E 13.0 0.0 0.3
05:27 8.2 7.3 94 1010.2 9.2 S 13.0 0.0 0.3
05:28 8.2 7.3 94 1010.2 8.3 S 13.0 0.0 0.3
05:29 8.2 7.3 94 1010.3 15.9 SW 15.9 0.0 0.3
05:30 8.2 7.3 94 1010.3 15.9 SW 15.9 0.0 0.3
05:31 8.2 7.3 94 1010.4 8.3 S 15.9 0.0 0.3
05:32 8.2 7.3 94 1010.2 8.3 S 15.9 0.0 0.3
05:33 8.3 7.4 94 1010.1 9.8 SE 15.9 0.0 0.3
05:34 8.3 7.4 94 1010.3 9.2 SW 15.9 0.0 0.3
05:36 8.3 7.4 94 1010.1 12.1 SSE 15.9 0.0 0.3
05:37 8.3 7.4 94 1010.4 9.8 S 15.9 0.0 0.3
05:38 8.3 7.5 95 1010.3 9.8 SSW 15.9 0.0 0.3
05:39 8.3 7.5 95 1010.3 10.7 S 15.9 0.0 0.3
05:40 8.3 7.5 95 1010.2 10.7 SE 15.9 0.0 0.3
05:41 8.3 7.5 95 1010.1 15.2 S 15.9 0.0 0.3
05:42 8.3 7.5 95 1010.1 19.0 SE 19.0 0.0 0.3
05:43 8.3 7.5 95 1010.1 19.0 S 19.0 0.0 0.3
05:44 8.4 7.6 95 1010.0 16.8 SE 19.0 0.0 0.3
05:45 8.4 7.6 95 1010.2 12.1 S 19.0 0.0 0.3
05:46 8.4 7.6 95 1010.0 11.4 S 19.0 0.0 0.3
05:47 8.4 7.6 95 1010.2 11.4 SE 19.0 0.0 0.3
05:48 8.4 7.6 95 1010.1 12.1 S 19.0 0.0 0.3
05:49 8.4 7.6 95 1010.2 12.1 S 19.0 0.0 0.3
05:50 8.4 7.6 95 1010.0 11.4 S 19.0 0.0 0.3
05:51 8.4 7.6 95 1010.3 9.8 SSE 19.0 0.0 0.3
05:52 8.4 7.6 95 1010.1 13.6 SSE 19.0 0.0 0.3
05:53 8.4 7.6 95 1009.9 15.2 S 16.8 0.0 0.3
05:55 8.4 7.6 95 1009.9 14.5 SE 15.2 0.0 0.3
05:56 8.4 7.6 95 1009.9 11.4 SE 15.2 0.0 0.3
05:57 8.4 7.6 95 1010.0 11.4 SE 15.2 0.0 0.3
05:58 8.4 7.6 95 1010.1 11.4 SE 15.2 0.0 0.3
05:59 8.4 7.6 95 1009.9 9.8 S 15.2 0.0 0.3
06:00 8.4 7.6 95 1010.1 8.3 SE 15.2 0.0 0.3
06:01 8.4 7.6 95 1009.8 12.1 NNE 15.2 0.0 0.3
06:02 8.4 7.6 95 1009.8 10.7 S 15.2 0.0 0.3
06:03 8.4 7.6 95 1009.6 8.3 SW 15.2 0.0 0.3
06:04 8.4 7.6 95 1009.7 11.4 SE 14.5 0.0 0.3
06:05 8.4 7.6 95 1009.8 13.0 S 14.5 0.0 0.3
06:06 8.4 7.6 95 1009.8 13.6 SW 13.6 0.0 0.3
06:07 8.4 7.6 95 1009.9 9.8 SSE 13.6 0.0 0.4
06:08 8.4 7.6 95 1009.7 19.0 SE 19.0 0.8 0.4
06:09 8.4 7.6 95 1009.9 13.0 SE 19.0 0.8 0.4
06:10 8.5 7.7 95 1009.9 13.0 S 19.0 0.8 0.4
06:11 8.5 7.7 95 1009.9 13.0 SSE 19.0 0.8 0.4
06:12 8.5 7.7 95 1009.8 12.1 SW 19.0 1.5 0.4
06:14 8.5 7.7 95 1009.8 13.0 S 19.0 0.8 0.5
06:15 8.5 7.7 95 1009.9 13.6 S 19.0 1.5 0.5
06:16 8.5 7.7 95 1009.9 13.6 S 19.0 1.5 0.5
06:17 8.5 7.7 95 1009.9 13.0 SE 19.0 0.8 0.5
06:18 8.5 7.7 95 1009.8 13.0 SSE 19.0 0.8 0.5
06:19 8.5 7.9 96 1009.7 16.8 SE 18.3 0.8 0.5
06:20 8.6 8.0 96 1009.8 16.8 SE 18.3 0.8 0.6
06:21 8.6 8.0 96 1009.8 13.0 S 18.3 0.8 0.6
06:22 8.6 8.0 96 1009.7 13.0 SW 18.3 0.8 0.6
06:23 8.6 8.0 96 1009.7 9.8 SW 18.3 0.8 0.6
06:24 8.6 8.0 96 1009.9 11.4 SE 18.3 0.8 0.6
06:25 8.6 8.0 96 1009.8 13.6 SE 18.3 0.0 0.6
06:26 8.6 8.2 97 1009.8 10.7 SE 18.3 0.0 0.6
06:27 8.6 8.2 97 1009.8 10.7 S 16.8 0.8 0.6
06:28 8.6 8.2 97 1010.0 12.1 S 16.8 0.8 0.7
06:29 8.7 8.3 97 1009.8 15.9 S 16.8 1.5 0.7
06:30 8.7 8.3 97 1009.7 10.7 SSE 15.9 1.5 0.8
06:31 8.7 8.3 97 1009.6 11.4 S 15.9 2.3 0.8
06:33 8.7 8.3 97 1009.5 14.5 SSE 15.9 2.3 0.9
06:34 8.7 8.4 98 1009.7 15.2 S 15.9 2.3 0.9
06:35 8.7 8.4 98 1009.4 16.8 S 16.8 3.0 0.9
06:36 8.7 8.4 98 1009.6 15.2 SSE 16.8 2.3 0.9
06:37 8.8 8.5 98 1009.4 16.8 SSW 16.8 1.5 0.9
06:38 8.8 8.5 98 1009.5 16.8 S 16.8 1.5 0.9
06:39 8.8 8.5 98 1009.5 17.4 S 17.4 0.8 0.9
06:40 8.8 8.5 98 1009.3 16.8 SE 17.4 0.0 0.9
06:41 8.8 8.7 99 1009.6 12.1 S 17.4 0.0 1.0
06:42 8.8 8.7 99 1009.2 15.2 S 17.4 0.8 1.0
06:43 8.8 8.7 99 1009.2 15.2 SSW 17.4 0.8 1.0
06:44 8.9 8.8 99 1009.3 17.4 S 17.4 0.8 1.0
06:45 8.9 8.8 99 1009.2 17.4 S 17.4 0.8 1.1
06:46 8.9 8.8 99 1009.3 16.8 SE 17.4 1.5 1.1
06:47 8.9 8.8 99 1009.1 17.4 SW 17.4 0.8 1.1
06:48 8.9 8.8 99 1009.2 15.2 S 17.4 0.8 1.1
06:49 8.9 8.8 99 1009.2 15.9 SE 17.4 0.8 1.1
06:50 9.0 8.9 99 1009.2 14.5 SE 17.4 0.8 1.1
06:52 9.0 9.0 100 1009.2 15.9 S 17.4 0.8 1.1
06:53 9.0 9.0 100 1009.2 14.5 SSW 17.4 0.8 1.1
06:54 9.0 9.0 100 1009.3 14.5 SW 17.4 0.8 1.1
06:55 9.0 9.0 100 1009.2 11.4 SSE 17.4 1.5 1.2
06:56 9.0 9.0 100 1009.3 13.0 SSE 17.4 0.8 1.2
06:57 9.0 9.0 100 1009.4 10.7 S 17.4 0.8 1.3
06:58 9.0 9.0 100 1009.2 16.8 S 16.8 1.5 1.3
06:59 9.1 9.1 100 1009.0 13.6 SE 16.8 2.3 1.3
07:00 9.1 9.1 100 1009.1 15.2 SE 16.8 1.5 1.3
07:01 9.1 9.1 100 1009.1 15.2 SE 16.8 1.5 1.3
07:02 9.1 9.1 100 1009.1 15.2 SE 16.8 1.5 1.3
07:03 9.1 9.1 100 1009.0 15.2 SE 16.8 0.8 1.3
07:04 9.1 9.1 100 1009.2 15.2 SE 16.8 0.0 1.3
07:05 9.1 9.1 100 1009.0 15.2 SE 16.8 0.0 1.3
07:06 9.1 9.1 100 1008.9 13.0 SW 16.8 0.0 1.6
07:07 9.1 9.1 100 1009.3 15.2 SSE 16.8 3.8 1.7
07:08 9.1 9.1 100 1009.3 15.2 SE 15.2 4.5 1.7
07:09 9.1 9.1 100 1009.1 12.1 SE 15.2 4.5 1.8
07:10 9.1 9.1 100 1009.1 16.8 S 16.8 5.3 1.8
07:12 9.2 9.2 100 1009.3 17.4 SE 18.3 2.3 1.9
07:13 9.2 9.2 100 1009.1 17.4 S 18.3 2.3 2.0
07:14 9.2 9.2 100 1009.2 15.2 SW 18.3 3.0 2.0
07:15 9.2 9.2 100 1009.0 14.5 S 18.3 3.0 2.0
07:16 9.2 9.2 100 1009.0 14.5 S 18.3 2.3 2.0
07:17 9.2 9.2 100 1009.1 15.2 S 18.3 3.0 2.1
07:18 9.2 9.2 100 1009.1 11.4 SE 18.3 2.3 2.1
07:19 9.2 9.2 100 1009.3 15.2 SW 18.3 2.3 2.1
07:20 9.2 9.2 100 1009.1 13.6 S 18.3 1.5 2.1
07:21 9.2 9.2 100 1009.2 9.8 SE 18.3 1.5 2.2
07:22 9.2 9.2 100 1009.0 11.4 S 17.4 1.5 2.2
07:23 9.2 9.2 100 1009.1 13.0 SSE 17.4 1.5 2.2
07:24 9.2 9.2 100 1009.0 14.5 SW 15.2 0.8 2.3
07:25 9.2 9.2 100 1009.2 14.5 SSE 15.2 1.5 2.3
07:26 9.2 9.2 100 1009.0 13.6 S 15.2 1.5 2.3
07:27 9.2 9.2 100 1009.2 16.8 SW 16.8 0.8 2.3
07:28 9.2 9.2 100 1009.0 22.1 S 22.1 1.5 2.3
07:29 9.2 9.2 100 1009.0 22.1 S 22.1 1.5 2.3
07:31 9.2 9.2 100 1008.9 13.0 SSE 22.1 1.5 2.4
07:32 9.2 9.2 100 1008.9 13.0 SSE 22.1 1.5 2.4
07:33 9.2 9.2 100 1009.0 9.8 SE 22.1 1.5 2.5
07:34 9.2 9.2 100 1009.1 13.0 S 22.1 2.3 2.5
07:35 9.2 9.2 100 1009.0 15.2 S 22.1 3.0 2.6
07:36 9.2 9.2 100 1008.9 14.5 S 22.1 2.3 2.6
07:37 9.2 9.2 100 1008.8 13.6 SE 22.1 2.3 2.6
07:38 9.2 9.2 100 1008.9 13.0 S 22.1 1.5 2.6
07:39 9.2 9.2 100 1009.2 10.7 S 22.1 0.8 2.6
07:40 9.2 9.2 100 1009.2 10.7 S 15.2 0.0 2.6
07:41 9.2 9.2 100 1008.9 15.9 S 15.9 0.8 2.6
07:42 9.2 9.2 100 1008.9 14.5 S 15.9 0.8 2.6
07:43 9.2 9.2 100 1008.9 13.0 S 15.9 0.8 2.6
07:44 9.2 9.2 100 1008.8 14.5 SE 15.9 0.8 2.6
07:45 9.2 9.2 100 1009.1 13.0 SSE 15.9 0.8 2.6
07:46 9.2 9.2 100 1008.9 20.6 SSE 20.6 0.0 2.6
07:47 9.2 9.2 100 1008.9 20.6 SSE 20.6 0.0 2.6
07:48 9.2 9.2 100 1008.9 19.7 S 20.6 0.0 2.6
07:50 9.2 9.2 100 1009.1 14.5 SE 20.6 0.0 2.6
07:51 9.2 9.2 100 1009.1 14.5 SE 20.6 0.0 2.6
07:52 9.2 9.2 100 1008.8 16.8 S 20.6 0.0 2.6
07:53 9.2 9.2 100 1009.0 14.5 S 20.6 0.0 2.6
07:54 9.2 9.2 100 1008.7 15.2 S 20.6 0.0 2.6
07:55 9.2 9.2 100 1008.7 15.2 SE 20.6 0.0 2.6
07:56 9.2 9.2 100 1008.8 16.8 S 20.6 0.8 2.7
07:57 9.2 9.2 100 1008.8 17.4 SSW 20.6 0.8 2.7
07:58 9.2 9.2 100 1008.7 17.4 S 19.7 0.8 2.7
07:59 9.3 9.3 100 1009.0 15.9 S 19.7 0.8 2.7
08:00 9.3 9.3 100 1008.9 13.6 S 17.4 0.8 2.7
08:01 9.3 9.3 100 1008.8 14.5 S 17.4 0.0 2.8
08:02 9.3 9.3 100 1008.9 17.4 SE 17.4 0.8 2.8
08:03 9.3 9.3 100 1008.9 13.0 S 17.4 0.8 2.8
08:04 9.3 9.3 100 1008.8 16.8 S 17.4 0.8 2.8
08:05 9.3 9.3 100 1008.8 15.2 S 17.4 0.8 2.8
08:06 9.3 9.3 100 1008.8 15.9 S 17.4 0.8 2.8
08:07 9.3 9.3 100 1008.7 15.9 S 17.4 0.0 2.8
08:09 9.3 9.3 100 1008.6 17.4 SSW 17.4 0.0 2.8
08:10 9.4 9.4 100 1008.8 12.1 S 17.4 0.0 2.8
08:11 9.4 9.4 100 1008.7 16.8 SW 17.4 0.0 2.8
08:12 9.4 9.4 100 1008.9 16.8 S 17.4 0.0 2.8
08:13 9.4 9.4 100 1008.5 15.9 SE 19.7 0.0 2.8
08:14 9.4 9.4 100 1008.7 13.0 WSW 19.7 0.0 2.8
08:15 9.4 9.4 100 1008.8 18.3 SE 19.7 0.8 2.8
08:16 9.4 9.4 100 1008.7 18.3 SE 19.7 0.8 2.8
08:17 9.5 9.5 100 1008.6 16.8 SSE 19.7 0.8 2.8
08:18 9.5 9.5 100 1008.7 16.8 S 19.7 0.8 2.8
08:19 9.5 9.5 100 1008.7 13.0 S 19.7 0.8 2.8
08:20 9.5 9.5 100 1008.6 13.0 S 19.7 0.0 2.8
08:21 9.5 9.5 100 1008.8 13.6 S 19.7 0.0 2.8
08:22 9.5 9.5 100 1008.5 13.6 S 19.7 0.0 2.8
08:23 9.5 9.5 100 1008.7 13.6 S 18.3 0.0 2.9
08:24 9.6 9.6 100 1008.7 13.6 S 18.3 0.8 2.9
08:25 9.6 9.6 100 1008.6 18.3 SW 18.3 0.8 2.9
08:26 9.6 9.6 100 1008.7 13.6 S 18.3 0.8 2.9
08:28 9.6 9.6 100 1008.3 12.1 S 18.3 0.8 2.9
08:29 9.6 9.6 100 1008.6 15.2 S 18.3 0.0 2.9
08:30 9.7 9.7 100 1008.6 15.2 SE 18.3 0.0 3.0
08:31 9.7 9.7 100 1008.4 15.9 SE 18.3 0.8 3.0
08:32 9.7 9.7 100 1008.4 15.9 S 18.3 0.8 3.0
08:33 9.7 9.7 100 1008.7 13.0 SE 18.3 1.5 3.0
08:34 9.8 9.8 100 1008.5 12.1 S 18.3 1.5 3.0
08:35 9.8 9.8 100 1008.4 13.0 S 18.3 1.5 3.0
08:36 9.8 9.8 100 1008.5 13.0 SSW 15.9 0.8 3.0
08:37 9.8 9.8 100 1008.2 13.6 S 15.9 0.8 3.1
08:38 9.8 9.8 100 1008.4 17.4 S 17.4 0.8 3.1
08:39 9.9 9.9 100 1008.5 16.8 S 17.4 0.8 3.1
08:40 9.9 9.9 100 1008.6 16.8 S 17.4 0.8 3.1
08:41 9.9 9.9 100 1008.5 13.6 SW 17.4 0.8 3.1
08:42 10.0 10.0 100 1008.5 14.5 SE 17.4 0.8 3.1
08:43 10.0 10.0 100 1008.5 18.3 SE 18.3 0.8 3.1
08:44 10.0 10.0 100 1008.4 18.3 SSW 18.3 0.8 3.1
08:45 10.0 10.0 100 1008.5 11.4 W 18.3 0.8 3.1
08:47 10.1 10.1 100 1008.5 15.9 SE 18.3 0.8 3.2
08:48 10.1 10.1 100 1008.5 15.9 SE 18.3 0.8 3.2
08:49 10.1 10.1 100 1008.5 13.6 SE 18.3 0.8 3.2
08:50 10.2 10.2 100 1008.6 15.2 S 18.3 0.8 3.2
08:51 10.2 10.2 100 1008.6 15.2 SW 18.3 1.5 3.3
08:52 10.2 10.2 100 1008.2 14.5 SE 18.3 1.5 3.3
08:53 10.2 10.2 100 1008.5 16.8 S 18.3 0.8 3.3
08:54 10.3 10.3 100 1008.5 15.9 S 18.3 0.8 3.3
08:55 10.3 10.3 100 1008.3 15.9 S 18.3 0.8 3.3
08:56 10.3 10.3 100 1008.4 14.5 S 18.3 0.0 3.3
08:57 10.4 10.4 100 1008.3 13.0 S 18.3 0.0 3.3
08:58 10.4 10.4 100 1008.2 16.8 S 18.3 0.0 3.3
08:59 10.4 10.4 100 1008.3 14.5 WSW 18.3 0.0 3.3
09:00 10.4 10.4 100 1008.2 14.5 WSW 18.3 0.0 3.3
09:01 10.4 10.4 100 1008.4 14.5 WSW 18.3 0.0 3.3
09:02 10.4 10.4 100 1008.1 14.5 WSW 18.3 0.0 3.3
09:03 10.4 10.4 100 1008.3 14.5 WSW 16.8 0.0 3.3
09:04 10.4 10.4 100 1008.1 14.5 WSW 16.8 0.0 3.3
09:06 10.6 10.6 100 1008.2 14.5 SSE 20.6 0.0 3.3
09:07 10.6 10.6 100 1008.2 14.5 SSE 20.6 0.0 3.3
09:08 10.6 10.6 100 1008.2 13.6 SW 20.6 0.0 3.3
09:09 10.7 10.7 100 1008.2 14.5 SSW 20.6 0.0 3.3
09:10 10.7 10.7 100 1008.1 15.2 S 20.6 0.0 3.3
09:11 10.7 10.7 100 1008.4 16.8 S 20.6 0.0 3.3
09:12 10.7 10.7 100 1008.1 16.8 SSE 20.6 0.0 3.3
09:13 10.7 10.7 100 1008.2 15.9 S 20.6 0.0 3.3
09:14 10.7 10.7 100 1008.4 14.5 S 20.6 0.0 3.3
09:15 10.7 10.7 100 1008.2 15.9 S 20.6 0.8 3.3
09:16 10.8 10.8 100 1008.2 17.4 SW 20.6 0.8 3.3
09:17 10.8 10.8 100 1008.3 19.0 S 19.0 0.8 3.3
09:18 10.8 10.8 100 1008.2 19.0 S 19.0 0.8 3.3
09:19 10.8 10.8 100 1008.2 15.2 S 19.0 0.8 3.3
09:20 10.8 10.8 100 1008.3 15.2 SE 22.1 0.8 3.4
09:21 10.8 10.8 100 1008.1 15.9 S 22.1 0.8 3.4
09:22 10.9 10.9 100 1008.3 18.3 SE 22.1 0.8 3.4
09:23 10.9 10.9 100 1008.2 15.9 SE 22.1 0.8 3.4
09:24 10.9 10.9 100 1008.2 13.6 S 22.1 0.8 3.5
09:25 10.9 10.9 100 1008.1 13.6 S 22.1 0.8 3.5
09:26 10.9 10.9 100 1008.1 16.8 S 22.1 0.8 3.5
09:28 10.9 10.9 100 1008.1 20.6 SW 22.1 1.5 3.5
09:29 10.9 10.9 100 1008.3 15.9 S 22.1 1.5 3.5
09:30 11.0 11.0 100 1008.2 14.5 SW 20.6 0.8 3.5
09:31 11.0 11.0 100 1008.0 18.3 S 20.6 0.8 3.5
09:32 11.0 11.0 100 1008.3 22.8 S 22.8 0.0 3.5
09:33 11.0 11.0 100 1008.2 17.4 SSE 22.8 0.8 3.6
09:34 11.0 11.0 100 1008.3 14.5 S 22.8 0.8 3.7
09:35 11.0 11.0 100 1008.0 18.3 SSW 22.8 1.5 3.7
09:36 11.0 11.0 100 1008.0 19.0 S 22.8 1.5 3.7
09:37 11.0 11.0 100 1008.2 15.9 SW 22.8 1.5 3.7
09:38 11.1 11.1 100 1008.3 13.0 SE 22.8 0.8 3.7
09:39 11.1 11.1 100 1008.2 16.8 S 22.8 0.8 3.7
09:40 11.1 11.1 100 1008.0 20.6 S 22.8 0.0 3.7
09:41 11.1 11.1 100 1008.2 20.6 S 22.8 0.8 3.7
09:42 11.1 11.1 100 1007.9 16.8 SSW 20.6 0.8 3.7
09:43 11.1 11.1 100 1008.6 16.8 SSW 20.6 0.8 3.7
09:44 11.1 11.1 100 1008.1 19.7 S 20.6 0.8 3.7
09:45 11.2 11.2 100 1008.2 19.7 W 20.6 0.8 3.7
09:47 11.2 11.2 100 1008.1 21.3 SSW 21.3 0.0 3.7
09:48 11.2 11.2 100 1008.1 21.3 SSW 21.3 0.0 3.7
09:49 11.2 11.2 100 1008.1 19.0 S 21.3 0.0 3.7
09:50 11.2 11.2 100 1008.2 21.3 SW 21.3 0.0 3.7
09:51 11.2 11.2 100 1008.1 14.5 SSW 21.3 0.0 3.7
09:52 11.3 11.3 100 1007.8 15.9 S 21.3 0.0 3.7
09:53 11.3 11.3 100 1007.9 21.3 SW 21.3 0.0 3.7
09:54 11.3 11.3 100 1008.0 16.8 S 21.3 0.0 3.7
09:55 11.3 11.3 100 1008.1 15.2 SW 21.3 0.0 3.7
09:56 11.3 11.3 100 1008.2 15.9 S 21.3 0.0 3.7
09:57 11.3 11.3 100 1008.0 22.1 S 22.1 0.0 3.7
09:58 11.3 11.3 100 1008.1 25.1 S 25.1 0.0 3.7
09:59 11.3 11.3 100 1008.1 25.1 S 25.1 0.0 3.7
10:00 11.4 11.4 100 1008.1 18.3 SSE 25.1 0.0 3.7
10:01 11.4 11.4 100 1008.1 20.6 SE 25.1 0.0 3.7
10:02 11.4 11.4 100 1007.9 18.3 SSW 25.1 0.0 3.7
10:03 11.4 11.4 100 1008.0 14.5 SE 25.1 0.0 3.7
10:04 11.4 11.4 100 1008.1 22.1 S 25.1 0.0 3.7
10:06 11.4 11.4 100 1008.1 22.1 S 25.1 0.0 3.7
10:07 11.4 11.4 100 1008.1 22.1 S 25.1 0.0 3.7
10:08 11.4 11.4 100 1008.1 19.7 S 25.1 0.0 3.7
10:09 11.4 11.4 100 1008.0 22.1 S 25.1 0.0 3.7
10:10 11.4 11.4 100 1008.0 21.3 SW 22.1 0.0 3.7
10:11 11.5 11.5 100 1008.1 19.0 S 22.1 0.0 3.7
10:12 11.5 11.5 100 1007.8 19.0 SSW 22.1 0.0 3.7
10:13 11.5 11.5 100 1008.2 20.6 S 22.1 0.0 3.7
10:14 11.5 11.5 100 1008.0 20.6 S 22.1 0.0 3.7
10:15 11.5 11.5 100 1008.0 15.9 S 22.1 0.0 3.7
10:16 11.5 11.5 100 1008.0 15.9 NNE 22.1 0.0 3.7
10:17 11.5 11.5 100 1008.1 18.3 SE 22.1 0.0 3.7
10:18 11.5 11.5 100 1008.1 19.0 SSE 22.1 0.0 3.7
10:19 11.5 11.5 100 1007.9 19.0 S 21.3 0.0 3.7
10:20 11.5 11.5 100 1008.0 18.3 SSW 20.6 0.0 3.7
10:21 11.5 11.5 100 1008.1 14.5 S 20.6 0.0 3.7
10:22 11.5 11.5 100 1008.1 16.8 S 20.6 0.0 3.7
10:23 11.5 11.5 100 1008.0 19.7 SW 20.6 0.0 3.7
10:25 11.5 11.5 100 1007.9 19.7 S 20.6 0.0 3.7
10:26 11.5 11.5 100 1008.2 19.7 WSW 20.6 0.0 3.7
10:27 11.5 11.5 100 1008.0 21.3 S 21.3 0.0 3.7
10:28 11.5 11.5 100 1008.1 18.3 SW 21.3 0.0 3.7
10:29 11.5 11.5 100 1008.2 18.3 WSW 21.3 0.0 3.7
10:30 11.5 11.5 100 1008.2 16.8 S 21.3 0.0 3.7
10:31 11.5 11.5 100 1008.2 16.8 S 21.3 0.0 3.7
10:32 11.5 11.5 100 1008.0 20.6 S 21.3 0.0 3.7
10:33 11.5 11.5 100 1008.0 15.2 S 21.3 0.0 3.7
10:34 11.5 11.5 100 1008.1 19.0 SW 21.3 0.0 3.7
10:35 11.5 11.5 100 1008.0 16.8 S 21.3 0.0 3.7
10:36 11.6 11.6 100 1008.2 15.2 S 21.3 0.0 3.7
10:37 11.6 11.6 100 1008.1 15.9 SW 20.6 0.0 3.7
10:38 11.6 11.6 100 1008.0 16.8 SSE 20.6 0.0 3.7
10:39 11.6 11.6 100 1008.2 15.9 S 20.6 0.0 3.7
10:40 11.6 11.6 100 1008.1 17.4 S 20.6 0.0 3.7
10:41 11.6 11.6 100 1008.2 16.8 SW 20.6 0.0 3.7
10:43 11.6 11.6 100 1008.2 19.7 S 23.5 0.0 3.7
10:44 11.6 11.6 100 1008.2 17.4 S 23.5 0.0 3.7
10:45 11.6 11.6 100 1008.1 19.7 S 23.5 0.0 3.7
10:46 11.6 11.6 100 1008.2 20.6 SW 23.5 0.0 3.7
10:47 11.6 11.6 100 1008.1 18.3 S 23.5 0.0 3.7
10:48 11.6 11.6 100 1008.2 19.0 S 23.5 0.0 3.7
10:49 11.6 11.6 100 1007.9 14.5 S 23.5 0.0 3.7
10:50 11.6 11.6 100 1008.2 22.8 SE 23.5 0.0 3.7
10:51 11.6 11.6 100 1008.1 17.4 S 23.5 0.0 3.7
10:52 11.6 11.6 100 1008.1 18.3 SW 23.5 0.0 3.7
10:53 11.6 11.6 100 1008.3 19.0 SW 22.8 0.0 3.7
10:54 11.6 11.6 100 1008.0 18.3 SW 22.8 0.0 3.7
10:55 11.6 11.6 100 1008.3 17.4 S 22.8 0.8 3.8
10:56 11.7 11.7 100 1008.1 17.4 S 22.8 0.8 3.8
10:57 11.7 11.7 100 1008.3 14.5 SSW 22.8 0.8 3.8
10:58 11.7 11.7 100 1008.2 17.4 SW 22.8 0.8 3.8
10:59 11.7 11.7 100 1008.2 17.4 S 22.8 0.8 3.8
11:00 11.7 11.7 100 1008.3 17.4 S 19.0 0.0 3.8
11:01 11.7 11.7 100 1008.2 17.4 S 19.0 0.0 3.8
11:03 11.7 11.7 100 1008.4 17.4 S 18.3 0.0 3.8
11:04 11.7 11.7 100 1008.4 17.4 S 18.3 0.0 3.8
11:05 11.7 11.7 100 1008.1 17.4 S 17.4 0.0 3.8
11:06 11.8 11.8 100 1008.4 15.2 SSW 17.4 0.0 3.8
11:07 11.8 11.8 100 1008.2 20.6 SSW 20.6 0.0 3.8
11:08 11.8 11.8 100 1008.2 17.4 SW 20.6 0.0 3.8
11:09 11.8 11.8 100 1008.4 19.0 SW 20.6 0.0 3.8
11:10 11.8 11.8 100 1008.4 15.2 S 20.6 0.0 3.8
11:11 11.8 11.8 100 1008.4 19.0 SW 20.6 0.0 3.8
11:12 11.8 11.8 100 1008.4 14.5 SW 20.6 0.0 3.8
11:13 11.8 11.8 100 1008.3 14.5 SSW 20.6 0.0 3.8
11:14 11.8 11.8 100 1008.4 14.5 SW 20.6 0.0 3.8
11:15 11.8 11.8 100 1008.5 16.8 NNW 20.6 0.8 3.8
11:16 11.8 11.8 100 1008.4 10.7 S 20.6 0.8 3.8
11:17 11.8 11.8 100 1008.3 15.9 SW 19.0 0.8 3.8
11:18 11.8 11.8 100 1008.2 18.3 SW 20.6 0.8 3.8
11:19 11.8 11.8 100 1008.4 18.3 SW 20.6 0.8 3.8
11:21 11.8 11.8 100 1008.5 18.3 SW 20.6 0.0 3.8
11:22 11.8 11.8 100 1008.4 19.0 SW 20.6 0.0 3.8
11:23 11.8 11.8 100 1008.4 19.0 SW 20.6 0.0 3.8
11:24 11.8 11.8 100 1008.5 15.9 SW 20.6 0.0 3.8
11:25 11.9 11.9 100 1008.5 14.5 SW 20.6 0.0 3.8
11:26 11.9 11.9 100 1008.5 19.0 SW 20.6 0.0 3.8
11:27 11.9 11.9 100 1008.2 16.8 SW 20.6 0.0 3.8
11:28 11.9 11.9 100 1008.4 18.3 SW 20.6 0.0 3.8
11:29 11.9 11.9 100 1008.4 17.4 SW 19.0 0.0 3.8
11:30 11.9 11.9 100 1008.5 17.4 SW 19.0 0.0 3.8
11:31 11.9 11.9 100 1008.4 17.4 SW 19.0 0.0 3.8
11:32 11.9 11.9 100 1008.5 14.5 S 19.0 0.0 3.8
11:33 11.9 11.9 100 1008.5 19.0 WSW 19.0 0.0 3.8
11:34 11.9 11.9 100 1008.4 18.3 SW 19.0 0.0 3.8
11:35 11.9 11.9 100 1008.4 22.1 SW 22.1 0.0 3.8
11:36 11.9 11.9 100 1008.6 18.3 SW 22.1 0.0 3.8
11:37 11.9 11.9 100 1008.6 14.5 SW 22.1 0.0 3.8
11:38 11.9 11.9 100 1008.6 20.6 SW 22.1 0.0 3.8
11:39 11.9 11.9 100 1008.5 19.0 SW 22.1 0.0 3.8
11:41 11.9 11.9 100 1008.6 20.6 SSW 22.1 0.0 3.8
11:42 11.9 11.9 100 1008.5 16.8 SW 22.1 0.0 3.8
11:43 11.9 11.9 100 1008.6 17.4 S 22.1 0.0 3.8
11:44 11.9 11.9 100 1008.3 17.4 SW 22.1 0.0 3.8
11:45 11.9 11.9 100 1008.5 19.0 SSW 22.1 0.0 3.8
11:46 11.9 11.9 100 1008.7 18.3 SW 20.6 0.0 3.8
11:47 11.9 11.9 100 1008.5 17.4 SW 20.6 0.0 3.8
11:48 11.9 11.9 100 1008.5 16.8 SSW 20.6 0.0 3.8
11:49 11.9 11.9 100 1008.5 15.9 S 20.6 0.0 3.9
11:50 11.9 11.9 100 1008.5 18.3 S 20.6 0.8 3.9
11:51 11.9 11.9 100 1008.4 18.3 SW 20.6 0.8 3.9
11:52 12.0 12.0 100 1008.6 19.0 WSW 19.0 0.8 3.9
11:53 12.0 12.0 100 1008.3 14.5 S 19.0 0.8 3.9
11:54 12.0 12.0 100 1008.6 15.9 SW 24.4 0.8 3.9
11:55 12.0 12.0 100 1008.5 17.4 SW 24.4 0.0 3.9
11:56 12.0 12.0 100 1008.4 13.0 SE 24.4 0.0 3.9
11:57 12.0 12.0 100 1008.6 16.8 SE 24.4 0.0 3.9
11:59 12.1 12.1 100 1008.4 20.6 SW 24.4 0.0 3.9
12:00 12.1 12.1 100 1008.4 11.4 SSW 24.4 0.0 3.9
12:01 12.1 12.1 100 1008.5 18.3 SW 24.4 0.0 3.9
12:02 12.1 12.1 100 1008.5 15.9 SW 24.4 0.0 3.9
12:03 12.1 12.1 100 1008.4 16.8 SW 24.4 0.0 3.9
12:04 12.1 12.1 100 1008.5 17.4 SSW 24.4 0.0 3.9
12:05 12.0 12.0 100 1008.5 14.5 SSW 20.6 0.0 3.9
12:06 12.0 12.0 100 1008.5 18.3 NW 20.6 0.0 3.9
12:07 12.0 12.0 100 1008.7 17.4 SW 20.6 0.0 3.9
12:08 12.0 12.0 100 1008.6 19.0 SW 20.6 0.0 3.9
12:09 12.0 12.0 100 1008.7 19.0 SW 20.6 0.0 3.9
12:10 12.0 12.0 100 1008.6 17.4 SSW 19.0 0.0 3.9
12:11 12.0 12.0 100 1008.5 13.6 SSW 19.0 0.0 3.9
12:12 12.0 12.0 100 1008.5 13.6 SW 19.0 0.0 3.9
12:13 12.0 12.0 100 1008.5 13.0 S 19.0 0.0 3.9
12:14 12.0 12.0 100 1008.4 18.3 SSW 19.0 0.0 3.9
12:15 12.0 12.0 100 1008.4 13.0 SW 19.0 0.0 3.9
12:16 12.0 12.0 100 1008.5 13.6 SSW 19.0 0.0 3.9
12:17 12.0 12.0 100 1008.6 15.9 SW 19.0 0.0 3.9
12:19 12.0 12.0 100 1008.5 15.9 SSE 19.0 0.0 3.9
12:20 12.0 12.0 100 1008.5 15.9 SSE 18.3 0.0 3.9
12:21 12.0 12.0 100 1008.6 18.3 W 18.3 0.0 3.9
12:22 12.0 12.0 100 1008.6 22.1 S 22.1 0.0 3.9
12:23 12.0 12.0 100 1008.4 21.3 S 22.1 0.0 3.9
12:24 12.0 12.0 100 1008.5 23.5 S 23.5 0.0 3.9
12:25 12.0 12.0 100 1008.7 19.0 S 23.5 0.0 3.9
12:26 12.0 12.0 100 1008.6 19.0 S 23.5 0.0 3.9
12:27 12.1 12.1 100 1008.3 19.0 SW 23.5 0.0 3.9
12:28 12.1 12.1 100 1008.3 16.8 S 23.5 0.0 3.9
12:29 12.1 12.1 100 1008.4 20.6 SW 23.5 0.0 3.9
12:30 12.1 12.1 100 1008.6 22.8 S 24.4 0.0 3.9
12:31 12.1 12.1 100 1008.6 25.9 SW 25.9 0.0 3.9
12:32 12.1 12.1 100 1008.6 21.3 WSW 25.9 0.0 3.9
12:33 12.1 12.1 100 1008.7 21.3 W 25.9 0.0 3.9
12:34 12.1 12.1 100 1008.6 17.4 S 25.9 0.0 3.9
12:35 12.1 12.1 100 1008.9 12.1 SW 25.9 0.0 3.9
12:36 12.1 12.1 100 1008.6 17.4 SSW 25.9 0.0 3.9
12:38 12.1 12.1 100 1008.7 17.4 SE 25.9 0.0 3.9
12:39 12.1 12.1 100 1008.7 17.4 SE 25.9 0.0 3.9
12:40 12.1 12.1 100 1008.5 15.9 S 25.9 0.0 3.9
12:41 12.1 12.1 100 1008.6 17.4 SSW 25.9 0.0 3.9
12:42 12.1 12.1 100 1008.7 15.9 SW 21.3 0.0 3.9
12:43 12.1 12.1 100 1008.6 15.9 SW 21.3 0.0 3.9
12:44 12.1 12.1 100 1008.5 15.9 S 18.3 0.0 3.9
12:45 12.1 12.1 100 1008.7 14.5 SW 18.3 0.0 3.9
12:46 12.1 12.1 100 1008.4 18.3 SW 18.3 0.0 3.9
12:47 12.1 12.1 100 1008.5 18.3 SE 18.3 0.0 3.9
12:48 12.1 12.1 100 1008.4 18.3 WNW 18.3 0.0 3.9
12:49 12.0 12.0 100 1008.6 15.2 S 18.3 0.0 3.9
12:50 12.0 12.0 100 1008.5 18.3 SW 18.3 0.0 3.9
12:51 12.0 12.0 100 1008.4 18.3 SW 18.3 0.0 3.9
12:52 12.0 12.0 100 1008.4 18.3 SW 18.3 0.0 3.9
12:53 12.0 12.0 100 1008.4 18.3 SW 18.3 0.0 3.9
12:54 12.0 12.0 100 1008.8 15.2 S 18.3 0.0 3.9
12:55 12.0 12.0 100 1008.5 20.6 SW 20.6 0.0 3.9
12:57 12.0 12.0 100 1008.5 18.3 SW 20.6 0.0 3.9
12:58 12.0 12.0 100 1008.6 18.3 SW 20.6 0.0 3.9
12:59 12.0 12.0 100 1008.6 18.3 S 20.6 0.0 3.9
13:00 11.9 11.9 100 1008.7 16.8 S 20.6 0.0 3.9
13:01 11.9 11.9 100 1008.7 16.8 S 20.6 0.0 3.9
13:02 11.9 11.9 100 1008.7 16.8 S 20.6 0.0 3.9
13:03 11.9 11.9 100 1008.6 16.8 S 20.6 0.0 3.9
13:04 11.9 11.9 100 1008.5 16.8 S 20.6 0.0 3.9
13:05 11.9 11.9 100 1008.7 16.8 S 20.6 0.0 3.9
13:06 12.0 12.0 100 1008.8 17.4 SW 19.7 0.0 3.9
13:07 12.0 12.0 100 1008.6 19.7 SW 19.7 0.0 3.9
13:08 12.0 12.0 100 1008.7 16.8 SW 19.7 0.0 3.9
13:09 12.0 12.0 100 1008.8 16.8 SW 19.7 0.0 3.9
13:10 12.0 12.0 100 1008.5 17.4 S 19.7 0.0 3.9
13:11 12.0 12.0 100 1008.8 19.7 SW 19.7 0.0 3.9
13:12 12.0 12.0 100 1008.9 20.6 S 20.6 0.0 3.9
13:13 12.0 12.0 100 1008.8 21.3 SW 21.3 0.0 3.9
13:14 12.0 12.0 100 1008.7 17.4 S 21.3 0.0 3.9
13:16 12.0 12.0 100 1008.7 15.9 S 21.3 0.0 3.9
13:17 12.0 12.0 100 1008.8 14.5 SSW 21.3 0.0 3.9
13:18 12.0 12.0 100 1008.8 14.5 S 21.3 0.0 3.9
13:19 12.0 12.0 100 1008.9 13.0 S 21.3 0.0 3.9
13:20 12.0 12.0 100 1008.8 15.2 W 21.3 0.0 3.9
13:21 12.0 12.0 100 1008.8 21.3 SW 21.3 0.0 3.9
13:22 12.0 12.0 100 1008.7 19.7 S 21.3 0.0 3.9
13:23 12.0 12.0 100 1008.9 14.5 S 21.3 0.0 3.9
13:24 12.0 12.0 100 1008.9 15.2 SW 21.3 0.0 3.9
13:25 12.0 12.0 100 1008.7 12.1 SE 21.3 0.0 3.9
13:26 12.0 12.0 100 1008.9 17.4 S 21.3 0.0 3.9
13:27 12.0 12.0 100 1008.6 16.8 S 21.3 0.0 3.9
13:28 12.0 12.0 100 1008.9 16.8 SE 21.3 0.0 3.9
13:29 12.0 12.0 100 1008.8 20.6 S 21.3 0.0 3.9
13:30 12.0 12.0 100 1009.0 13.0 SW 21.3 0.0 3.9
13:31 12.0 12.0 100 1008.8 12.1 SW 21.3 0.0 3.9
13:32 12.0 12.0 100 1008.8 12.1 SW 20.6 0.0 3.9
13:33 12.0 12.0 100 1009.0 20.6 S 20.6 0.0 3.9
13:35 12.0 12.0 100 1008.8 19.0 S 22.1 0.0 3.9
13:36 12.0 12.0 100 1008.8 19.0 S 22.1 0.0 3.9
13:37 12.0 12.0 100 1008.8 19.0 S 22.1 0.0 3.9
13:38 11.9 11.9 100 1009.0 17.4 S 22.1 0.0 3.9
13:39 11.9 11.9 100 1008.8 16.8 SE 22.1 0.0 3.9
13:40 11.9 11.9 100 1009.0 18.3 S 22.1 0.0 3.9
13:41 11.9 11.9 100 1008.8 19.7 SW 22.1 0.0 3.9
13:42 11.9 11.9 100 1009.0 19.7 SW 22.1 0.0 3.9
13:43 11.9 11.9 100 1009.1 15.9 SSE 22.1 0.0 3.9
13:44 11.9 11.9 100 1009.3 17.4 SW 22.1 0.0 3.9
13:45 11.9 11.9 100 1008.9 19.7 SW 19.7 0.0 3.9
13:46 11.9 11.9 100 1009.2 19.7 SE 19.7 0.0 3.9
13:47 11.8 11.8 100 1009.0 18.3 S 19.7 0.0 3.9
13:48 11.8 11.8 100 1009.0 19.0 SE 19.7 0.0 3.9
13:49 11.8 11.8 100 1009.2 15.9 S 19.7 0.0 3.9
13:50 11.8 11.8 100 1009.0 18.3 S 22.8 0.0 3.9
13:51 11.8 11.8 100 1009.3 14.5 S 22.8 0.0 3.9
13:52 11.8 11.8 100 1009.0 15.9 SW 22.8 0.0 3.9
13:54 11.8 11.8 100 1008.9 19.0 S 22.8 0.0 3.9
13:55 11.8 11.8 100 1008.9 19.0 S 22.8 0.0 3.9
13:56 11.8 11.8 100 1009.2 19.0 S 22.8 0.0 3.9
13:57 11.8 11.8 100 1009.1 19.0 S 22.8 0.0 3.9
13:58 11.8 11.8 100 1009.0 19.7 SW 22.8 0.0 3.9
13:59 11.8 11.8 100 1009.3 22.1 S 22.8 0.0 3.9
14:00 11.8 11.8 100 1009.1 23.5 SW 23.5 0.0 3.9
14:01 11.8 11.8 100 1009.2 19.0 SW 23.5 0.0 3.9
14:02 11.8 11.8 100 1009.1 17.4 SW 23.5 0.0 3.9
14:03 11.8 11.8 100 1009.3 18.3 SW 23.5 0.0 3.9
14:04 11.8 11.8 100 1009.4 18.3 SW 23.5 0.0 3.9
14:05 11.8 11.8 100 1009.3 20.6 S 23.5 0.0 3.9
14:06 11.8 11.8 100 1009.1 16.8 SW 23.5 0.0 3.9
14:07 11.8 11.8 100 1009.3 19.0 SW 23.5 0.0 3.9
14:08 11.8 11.8 100 1008.9 19.0 WSW 23.5 0.0 3.9
14:09 11.8 11.8 100 1008.9 17.4 SSW 23.5 0.0 3.9
14:10 11.8 11.8 100 1009.3 19.0 S 20.6 0.0 3.9
14:11 11.8 11.8 100 1009.3 16.8 SW 20.6 0.0 3.9
14:13 11.8 11.8 100 1009.2 18.3 SW 20.6 0.0 3.9
14:14 11.8 11.8 100 1009.2 13.6 S 20.6 0.0 3.9
14:15 11.8 11.8 100 1009.2 15.9 SW 20.6 0.0 3.9
14:16 11.8 11.8 100 1009.2 16.8 SW 19.0 0.0 3.9
14:17 11.8 11.8 100 1009.3 19.7 S 19.7 0.0 3.9
14:18 11.8 11.8 100 1009.2 19.7 SSE 19.7 0.0 3.9
14:19 11.8 11.8 100 1009.1 17.4 S 19.7 0.0 3.9
14:20 11.8 11.8 100 1009.1 22.8 S 22.8 0.0 3.9
14:21 11.8 11.8 100 1009.2 22.1 SW 22.8 0.0 3.9
14:22 11.8 11.8 100 1009.3 13.0 SW 22.8 0.0 3.9
14:23 11.8 11.8 100 1009.2 19.7 SSW 22.8 0.0 3.9
14:24 11.8 11.8 100 1009.1 18.3 SSW 22.8 0.0 3.9
14:25 11.8 11.8 100 1009.3 19.0 NW 22.8 0.0 3.9
14:26 11.8 11.8 100 1009.1 19.0 NW 22.8 0.0 3.9
14:27 11.8 11.8 100 1009.1 17.4 SSW 22.8 0.0 3.9
14:28 11.8 11.8 100 1009.2 17.4 SW 22.8 0.0 3.9
14:29 11.8 11.8 100 1009.2 16.8 WSW 22.8 0.0 3.9
14:30 11.8 11.8 100 1009.4 17.4 S 22.1 0.0 3.9
14:31 11.8 11.8 100 1009.3 14.5 SW 22.1 0.0 3.9
14:33 11.8 11.8 100 1009.2 18.3 SW 22.1 0.0 3.9
14:34 11.8 11.8 100 1009.5 17.4 SW 22.1 0.0 3.9
14:35 11.8 11.8 100 1009.4 15.9 SW 22.1 0.0 3.9
14:36 11.8 11.8 100 1009.2 18.3 SW 22.1 0.0 3.9
14:37 11.8 11.8 100 1009.2 15.9 SW 22.1 0.0 3.9
14:38 11.8 11.8 100 1009.3 14.5 SW 19.0 0.0 3.9
14:39 11.8 11.8 100 1009.3 20.6 WSW 20.6 0.0 3.9
14:40 11.8 11.8 100 1009.2 15.9 NNW 20.6 0.0 3.9
14:41 11.7 11.7 100 1009.3 22.1 SW 22.1 0.0 3.9
14:42 11.7 11.7 100 1009.4 15.9 S 22.1 0.0 3.9
14:43 11.7 11.7 100 1009.2 18.3 WSW 22.1 0.0 3.9
14:44 11.8 11.8 100 1009.3 28.9 SW 28.9 0.0 3.9
14:45 11.8 11.8 100 1009.3 22.8 SW 28.9 0.0 3.9
14:46 11.8 11.8 100 1009.1 19.0 SW 28.9 0.0 3.9
14:47 11.8 11.8 100 1009.5 19.0 SSW 28.9 0.0 3.9
14:48 11.8 11.8 100 1009.3 15.2 S 28.9 0.0 3.9
14:49 11.8 11.8 100 1009.4 15.9 SW 28.9 0.0 3.9
14:50 11.8 11.8 100 1009.4 15.9 WSW 28.9 0.0 3.9
14:52 11.8 11.8 100 1009.4 14.5 SW 28.9 0.0 3.9
14:53 11.8 11.8 100 1009.4 14.5 SW 28.9 0.0 3.9
14:54 11.8 11.8 100 1009.2 19.7 S 28.9 0.0 3.9
14:55 11.8 11.8 100 1009.4 19.7 S 22.8 0.0 3.9
14:56 11.8 11.8 100 1009.4 14.5 SW 21.3 0.0 3.9
14:57 11.8 11.8 100 1009.5 13.6 W 21.3 0.0 3.9
14:58 11.8 11.8 100 1009.4 19.7 W 21.3 0.0 3.9
14:59 11.8 11.8 100 1009.4 22.1 SW 22.1 0.0 3.9
15:00 11.7 11.7 100 1009.4 18.3 S 22.1 0.0 3.9
15:01 11.7 11.7 100 1009.5 18.3 S 22.1 0.0 3.9
15:02 11.7 11.7 100 1009.4 18.3 S 22.1 0.0 3.9
15:03 11.7 11.7 100 1009.4 18.3 S 22.1 0.0 3.9
15:04 11.7 11.7 100 1009.4 18.3 S 22.1 0.0 3.9
15:05 11.7 11.7 100 1009.7 18.3 S 22.1 0.0 3.9
15:06 11.7 11.7 100 1009.5 17.4 S 22.1 0.0 3.9
15:07 11.7 11.7 100 1009.4 16.8 SW 22.1 0.0 3.9
15:08 11.7 11.7 100 1009.4 16.8 SW 22.1 0.0 3.9
15:09 11.7 11.7 100 1009.5 19.0 SW 19.0 0.0 3.9
15:11 11.7 11.7 100 1009.7 17.4 W 19.0 0.0 3.9
15:12 11.7 11.7 100 1009.7 17.4 W 19.0 0.0 3.9
15:13 11.7 11.7 100 1009.6 18.3 SW 19.0 0.0 3.9
15:14 11.7 11.7 100 1009.6 18.3 S 19.0 0.0 3.9
15:15 11.7 11.7 100 1009.6 17.4 SW 19.0 0.0 3.9
15:16 11.7 11.7 100 1009.6 17.4 S 19.0 0.0 3.9
15:17 11.7 11.7 100 1009.6 11.4 SW 19.0 0.0 3.9
15:18 11.7 11.7 100 1009.6 15.2 S 19.0 0.0 3.9
15:19 11.7 11.7 100 1009.6 15.2 SW 19.0 0.0 3.9
15:20 11.7 11.7 100 1009.7 18.3 S 19.0 0.0 3.9
15:21 11.7 11.7 100 1009.7 17.4 SW 18.3 0.0 3.9
15:22 11.7 11.7 100 1009.5 17.4 SW 18.3 0.0 3.9
15:23 11.7 11.7 100 1009.7 17.4 SW 18.3 0.0 3.9
15:24 11.7 11.7 100 1009.5 14.5 SW 18.3 0.0 3.9
15:25 11.7 11.7 100 1009.7 13.0 SSW 18.3 0.0 3.9
15:26 11.7 11.7 100 1009.7 12.1 SW 18.3 0.0 3.9
15:27 11.7 11.7 100 1009.6 15.9 S 18.3 0.0 3.9
15:28 11.7 11.7 100 1009.6 15.9 W 18.3 0.0 3.9
15:29 11.7 11.7 100 1009.8 17.4 SSW 18.3 0.0 3.9
15:30 11.7 11.7 100 1009.6 17.4 W 17.4 0.0 3.9
15:31 11.7 11.7 100 1009.7 12.1 SSW 17.4 0.0 3.9
15:33 11.7 11.7 100 1009.7 15.2 SW 19.0 0.0 3.9
15:34 11.7 11.7 100 1009.7 17.4 SW 19.0 0.0 3.9
15:35 11.6 11.6 100 1009.7 17.4 SSW 19.0 0.0 3.9
15:36 11.6 11.6 100 1009.8 17.4 SW 19.0 0.0 3.9
15:37 11.6 11.6 100 1009.8 19.7 S 19.7 0.0 3.9
15:38 11.6 11.6 100 1009.7 20.6 SW 20.6 0.0 3.9
15:39 11.6 11.6 100 1009.7 19.7 S 20.6 0.0 3.9
15:40 11.6 11.6 100 1010.1 16.8 SW 20.6 0.0 3.9
15:41 11.6 11.6 100 1009.7 15.9 SW 20.6 0.0 3.9
15:42 11.6 11.6 100 1009.9 16.8 S 20.6 0.0 3.9
15:43 11.6 11.6 100 1009.8 17.4 SW 20.6 0.0 3.9
15:44 11.6 11.6 100 1009.7 15.2 S 20.6 0.0 3.9
15:45 11.6 11.6 100 1009.6 17.4 SW 20.6 0.0 3.9
15:46 11.6 11.6 100 1009.9 15.9 S 20.6 0.0 3.9
15:47 11.6 11.6 100 1010.1 19.7 SW 20.6 0.0 3.9
15:48 11.6 11.6 100 1009.9 18.3 SW 19.7 0.0 3.9
15:49 11.6 11.6 100 1010.0 19.7 SW 19.7 0.0 3.9
15:50 11.6 11.6 100 1010.0 19.7 S 19.7 0.0 3.9
15:52 11.5 11.5 100 1010.0 14.5 S 19.7 0.0 3.9
15:53 11.5 11.5 100 1010.1 19.0 SSW 19.7 0.0 3.9
15:54 11.5 11.5 100 1009.9 19.0 SW 19.7 0.0 3.9
15:55 11.5 11.5 100 1009.9 14.5 SW 19.7 0.0 3.9
15:56 11.5 11.5 100 1009.9 18.3 SW 19.7 0.0 3.9
15:57 11.5 11.5 100 1010.0 16.8 W 19.7 0.0 3.9
15:58 11.5 11.5 100 1010.1 13.6 SSW 19.7 0.0 3.9
15:59 11.5 11.5 100 1010.0 16.8 SW 19.7 0.0 3.9
16:00 11.5 11.5 100 1010.0 16.8 SW 19.7 0.0 3.9
16:01 11.5 11.5 100 1010.0 19.0 W 19.7 0.0 3.9
16:02 11.5 11.5 100 1010.3 21.3 S 21.3 0.0 3.9
16:03 11.5 11.5 100 1010.1 19.0 S 21.3 0.0 3.9
16:04 11.5 11.5 100 1010.3 15.2 SW 21.3 0.0 3.9
16:05 11.5 11.5 100 1010.2 17.4 S 21.3 0.0 3.9
16:06 11.5 11.5 100 1010.2 17.4 SW 21.3 0.0 3.9
16:07 11.5 11.5 100 1010.2 18.3 SW 21.3 0.0 3.9
16:08 11.5 11.5 100 1010.2 18.3 SW 21.3 0.0 3.9
16:09 11.5 11.5 100 1010.2 16.8 S 21.3 0.0 3.9
16:11 11.5 11.5 100 1010.1 16.8 S 21.3 0.0 3.9
16:12 11.5 11.5 100 1010.1 16.8 SW 19.0 0.0 3.9
16:13 11.5 11.5 100 1010.1 16.8 SW 19.0 0.0 3.9
16:14 11.5 11.5 100 1010.2 13.0 W 18.3 0.0 3.9
16:15 11.5 11.5 100 1010.2 15.9 S 18.3 0.0 3.9
16:16 11.5 11.5 100 1010.4 16.8 SW 18.3 0.0 3.9
16:17 11.5 11.5 100 1010.1 16.8 SW 18.3 0.0 3.9
16:18 11.5 11.5 100 1010.3 15.2 SW 18.3 0.0 3.9
16:19 11.5 11.5 100 1010.4 15.2 SW 18.3 0.0 3.9
16:20 11.5 11.5 100 1010.3 14.5 SW 18.3 0.0 3.9
16:21 11.5 11.5 100 1010.2 10.7 SSW 16.8 0.0 3.9
16:22 11.5 11.5 100 1010.2 18.3 S 18.3 0.0 3.9
16:23 11.5 11.5 100 1010.4 17.4 SW 18.3 0.0 3.9
16:24 11.5 11.5 100 1010.1 17.4 SW 18.3 0.0 3.9
16:25 11.5 11.5 100 1010.5 15.9 S 18.3 0.0 3.9
16:26 11.5 11.5 100 1010.2 19.0 SW 19.0 0.0 3.9
16:27 11.5 11.5 100 1010.3 16.8 S 19.0 0.0 3.9
16:28 11.5 11.5 100 1010.3 16.8 S 19.0 0.0 3.9
16:29 11.5 11.5 100 1010.4 15.9 SW 19.0 0.0 3.9
16:31 11.5 11.5 100 1010.5 16.8 SW 19.0 0.0 3.9
16:32 11.5 11.5 100 1010.5 16.8 SW 19.0 0.0 3.9
16:33 11.5 11.5 100 1010.4 12.1 W 19.0 0.0 3.9
16:34 11.5 11.5 100 1010.6 18.3 SSW 19.0 0.0 3.9
16:35 11.5 11.5 100 1010.4 18.3 S 19.0 0.0 3.9
16:36 11.5 11.5 100 1010.3 15.2 WSW 19.0 0.0 3.9
16:37 11.5 11.5 100 1010.5 15.2 SW 18.3 0.0 3.9
16:38 11.5 11.5 100 1010.5 22.1 SW 22.1 0.0 3.9
16:39 11.5 11.5 100 1010.4 16.8 SW 22.1 0.0 3.9
16:40 11.5 11.5 100 1010.4 16.8 SW 22.1 0.0 3.9
16:41 11.5 11.5 100 1010.5 25.1 SW 25.1 0.0 3.9
16:42 11.5 11.5 100 1010.5 20.6 SW 25.1 0.0 3.9
16:43 11.5 11.5 100 1010.5 19.7 SW 25.1 0.0 3.9
16:44 11.5 11.5 100 1010.3 16.8 WSW 25.1 0.0 3.9
16:45 11.5 11.5 100 1010.4 13.6 SW 25.1 0.0 3.9
16:46 11.5 11.5 100 1010.4 15.9 SW 25.1 0.0 3.9
16:47 11.5 11.5 100 1010.4 16.8 SW 25.1 0.0 3.9
16:48 11.5 11.5 100 1010.2 16.8 SW 25.1 0.0 3.9
16:49 11.5 11.5 100 1010.4 20.6 SW 25.1 0.0 3.9
16:50 11.5 11.5 100 1010.2 16.8 SW 25.1 0.0 3.9
16:51 11.5 11.5 100 1010.3 16.8 SW 20.6 0.0 3.9
16:52 11.5 11.5 100 1010.5 19.7 SW 20.6 0.0 3.9
16:53 11.5 11.5 100 1010.4 18.3 S 20.6 0.0 3.9
16:54 11.5 11.5 100 1010.4 19.7 SW 20.6 0.0 3.9
16:55 11.5 11.5 100 1010.4 17.4 SW 20.6 0.0 3.9
16:56 11.5 11.5 100 1010.3 13.0 SSW 20.6 0.0 3.9
16:57 11.5 11.5 100 1010.4 14.5 SW 20.6 0.0 3.9
16:58 11.5 11.5 100 1010.4 15.9 SW 20.6 0.0 3.9
16:59 11.5 11.5 100 1010.3 12.1 SW 19.7 0.0 3.9
17:00 11.5 11.5 100 1010.5 12.1 SW 19.7 0.0 3.9
17:01 11.5 11.5 100 1010.3 12.1 SW 19.7 0.0 3.9
17:02 11.5 11.5 100 1010.7 12.1 SW 19.7 0.0 3.9
17:04 11.5 11.5 100 1010.3 12.1 SW 17.4 0.0 3.9
17:05 11.5 11.5 100 1010.3 12.1 SW 17.4 0.0 3.9
17:06 11.5 11.5 100 1010.3 16.8 SW 21.3 0.0 3.9
17:07 11.5 11.5 100 1010.5 15.9 SW 21.3 0.0 3.9
17:08 11.5 11.5 100 1010.3 14.5 SW 21.3 0.0 3.9
17:09 11.4 11.4 100 1010.5 14.5 SW 21.3 0.0 3.9
17:10 11.4 11.4 100 1010.3 17.4 S 21.3 0.0 3.9
17:11 11.4 11.4 100 1010.6 17.4 SE 21.3 0.0 3.9
17:12 11.4 11.4 100 1010.8 15.9 SW 21.3 0.0 3.9
17:13 11.4 11.4 100 1010.6 15.2 S 21.3 0.0 3.9
17:14 11.4 11.4 100 1010.6 16.8 SW 21.3 0.0 3.9
17:15 11.4 11.4 100 1010.6 13.6 S 21.3 0.0 3.9
17:16 11.4 11.4 100 1010.5 15.9 WSW 17.4 0.0 3.9
17:17 11.4 11.4 100 1010.4 14.5 WSW 17.4 0.0 3.9
17:18 11.4 11.4 100 1010.7 12.1 S 17.4 0.0 3.9
17:19 11.4 11.4 100 1010.5 15.9 SW 18.3 0.0 3.9
17:20 11.4 11.4 100 1010.6 15.2 SW 18.3 0.0 3.9
17:21 11.4 11.4 100 1010.5 13.6 SW 18.3 0.0 3.9
17:22 11.4 11.4 100 1010.6 13.0 SW 18.3 0.0 3.9
17:23 11.4 11.4 100 1010.6 11.4 SW 18.3 0.0 3.9
17:24 11.4 11.4 100 1010.5 15.2 SSW 18.3 0.0 3.9
17:25 11.4 11.4 100 1010.6 14.5 SW 18.3 0.0 3.9
17:27 11.4 11.4 100 1010.9 13.0 SSW 18.3 0.0 3.9
17:28 11.4 11.4 100 1010.9 13.0 SSW 18.3 0.0 3.9
17:29 11.4 11.4 100 1010.8 15.2 S 18.3 0.0 3.9
17:30 11.4 11.4 100 1010.9 13.6 SW 15.2 0.0 3.9
17:31 11.4 11.4 100 1010.7 13.0 S 15.2 0.0 3.9
17:32 11.4 11.4 100 1010.6 12.1 SW 15.2 0.0 3.9
17:33 11.4 11.4 100 1010.6 21.3 SW 21.3 0.0 3.9
17:34 11.4 11.4 100 1010.8 12.1 SW 21.3 0.0 3.9
17:35 11.4 11.4 100 1010.7 14.5 SW 21.3 0.0 3.9
17:36 11.4 11.4 100 1010.8 14.5 SW 21.3 0.0 3.9
17:37 11.4 11.4 100 1010.6 14.5 SW 21.3 0.0 3.9
17:38 11.4 11.4 100 1010.6 15.2 SW 21.3 0.0 3.9
17:39 11.4 11.4 100 1010.7 11.4 S 21.3 0.0 3.9
17:40 11.3 11.3 100 1010.9 12.1 S 21.3 0.0 3.9
17:41 11.3 11.3 100 1010.9 11.4 SSW 21.3 0.0 3.9
17:42 11.3 11.3 100 1010.7 12.1 SW 21.3 0.0 3.9
17:43 11.3 11.3 100 1010.6 21.3 SW 21.3 0.0 3.9
17:45 11.3 11.3 100 1010.9 16.8 S 21.3 0.0 3.9
17:46 11.3 11.3 100 1010.6 16.8 SW 21.3 0.0 3.9
17:47 11.3 11.3 100 1011.1 15.2 S 21.3 0.0 3.9
17:48 11.3 11.3 100 1010.7 15.2 S 21.3 0.0 3.9
17:49 11.3 11.3 100 1010.9 14.5 SW 21.3 0.0 3.9
17:50 11.4 11.4 100 1010.9 13.0 S 21.3 0.0 3.9
17:51 11.4 11.4 100 1010.9 15.2 SSW 21.3 0.0 3.9
17:52 11.4 11.4 100 1010.9 19.0 SW 21.3 0.0 3.9
17:53 11.4 11.4 100 1010.8 19.0 SW 21.3 0.0 3.9
17:54 11.4 11.4 100 1010.9 19.7 S 21.3 0.0 3.9
17:55 11.4 11.4 100 1011.1 19.7 SW 19.7 0.0 3.9
17:56 11.4 11.4 100 1010.9 17.4 S 19.7 0.0 3.9
17:57 11.4 11.4 100 1011.1 15.2 SW 19.7 0.0 3.9
17:58 11.4 11.4 100 1011.1 13.0 SW 19.7 0.0 3.9
17:59 11.4 11.4 100 1010.9 13.6 NW 19.7 0.0 3.9
18:00 11.4 11.4 100 1010.8 13.6 NW 19.7 0.0 3.9
18:01 11.4 11.4 100 1011.2 13.6 NW 19.7 0.0 3.9
18:02 11.4 11.4 100 1010.8 13.6 NW 19.7 0.0 3.9
18:03 11.4 11.4 100 1010.8 13.6 NW 19.7 0.0 3.9
18:05 11.4 11.4 100 1011.1 13.6 NW 19.0 0.0 3.9
18:06 11.4 11.4 100 1011.0 18.3 SW 19.0 0.0 3.9
18:07 11.4 11.4 100 1011.1 18.3 S 18.3 0.0 3.9
18:08 11.4 11.4 100 1011.0 12.1 SW 18.3 0.0 3.9
18:09 11.4 11.4 100 1011.0 13.0 SW 18.3 0.0 3.9
18:10 11.4 11.4 100 1011.0 12.1 SW 18.3 0.0 3.9
18:11 11.3 11.3 100 1010.9 11.4 SSE 18.3 0.0 3.9
18:12 11.3 11.3 100 1010.9 13.0 SW 18.3 0.0 3.9
18:13 11.3 11.3 100 1011.0 13.0 SW 18.3 0.0 3.9
18:14 11.3 11.3 100 1011.0 17.4 SSW 18.3 0.0 3.9
18:15 11.3 11.3 100 1011.0 15.2 SW 18.3 0.0 3.9
18:16 11.3 11.3 100 1011.1 12.1 SW 18.3 0.0 3.9
18:17 11.3 11.3 100 1010.8 12.1 SW 17.4 0.0 3.9
18:18 11.3 11.3 100 1011.1 13.6 SW 17.4 0.0 3.9
18:19 11.3 11.3 100 1010.8 13.6 SW 17.4 0.0 3.9
18:20 11.3 11.3 100 1010.8 12.1 S 17.4 0.0 3.9
18:21 11.3 11.3 100 1010.8 12.1 S 17.4 0.0 3.9
18:23 11.3 11.3 100 1010.8 16.8 SW 17.4 0.0 3.9
18:24 11.3 11.3 100 1010.8 15.2 WSW 16.8 0.0 3.9
18:25 11.3 11.3 100 1010.8 15.2 WSW 16.8 0.0 3.9
18:26 11.3 11.3 100 1010.8 13.0 WSW 16.8 0.0 3.9
18:27 11.3 11.3 100 1010.7 13.0 SW 16.8 0.0 3.9
18:28 11.3 11.3 100 1010.7 10.7 SW 16.8 0.0 3.9
18:29 11.3 11.3 100 1010.8 10.7 S 16.8 0.0 3.9
18:30 11.3 11.3 100 1010.7 9.8 SW 16.8 0.0 3.9
18:31 11.3 11.3 100 1010.8 11.4 SSW 16.8 0.0 3.9
18:32 11.3 11.3 100 1010.9 11.4 SSW 16.8 0.0 3.9
18:33 11.3 11.3 100 1010.9 11.4 SSW 16.8 0.0 3.9
18:34 11.2 11.2 100 1011.0 13.6 S 15.2 0.0 3.9
18:35 11.3 11.3 100 1010.8 9.8 SW 13.6 0.0 3.9
18:36 11.3 11.3 100 1010.8 13.0 SW 13.6 0.0 3.9
18:37 11.3 11.3 100 1010.7 12.1 SW 13.6 0.0 3.9
18:38 11.3 11.3 100 1011.0 13.6 SW 13.6 0.0 3.9
18:39 11.3 11.3 100 1010.9 13.0 S 13.6 0.0 3.9
18:40 11.3 11.3 100 1011.0 13.6 SW 13.6 0.0 3.9
18:41 11.3 11.3 100 1011.0 14.5 S 14.5 0.0 3.9
18:43 11.3 11.3 100 1011.1 11.4 S 14.5 0.0 3.9
18:44 11.3 11.3 100 1011.1 11.4 S 14.5 0.0 3.9
18:45 11.3 11.3 100 1011.0 16.8 SW 16.8 0.0 3.9
18:46 11.3 11.3 100 1011.2 13.0 SW 16.8 0.0 3.9
18:47 11.3 11.3 100 1011.2 15.2 SW 16.8 0.0 3.9
18:48 11.3 11.3 100 1011.1 15.2 SW 16.8 0.0 3.9
18:49 11.3 11.3 100 1011.2 13.0 S 16.8 0.0 3.9
18:50 11.3 11.3 100 1011.3 13.0 S 16.8 0.0 3.9
18:51 11.3 11.3 100 1011.1 13.6 SW 16.8 0.0 3.9
18:52 11.3 11.3 100 1011.3 13.0 S 16.8 0.0 3.9
18:53 11.3 11.3 100 1011.2 13.0 SW 16.8 0.0 3.9
18:54 11.3 11.3 100 1010.9 12.1 SW 16.8 0.0 3.9
18:55 11.3 11.3 100 1011.2 13.6 SW 16.8 0.0 3.9
18:56 11.3 11.3 100 1011.1 13.6 SSW 15.2 0.0 3.9
18:57 11.3 11.3 100 1011.3 13.6 SSW 15.2 0.0 3.9
18:58 11.3 11.3 100 1011.2 14.5 S 14.5 0.0 3.9
18:59 11.3 11.3 100 1011.3 18.3 SW 18.3 0.0 3.9
19:00 11.3 11.3 100 1011.1 18.3 SW 18.3 0.0 3.9
19:01 11.3 11.3 100 1011.4 18.3 SW 18.3 0.0 3.9
19:03 11.3 11.3 100 1011.2 18.3 SW 18.3 0.0 3.9
19:04 11.3 11.3 100 1011.2 18.3 SW 18.3 0.0 3.9
19:05 11.3 11.3 100 1011.4 18.3 SW 18.3 0.0 3.9
19:06 11.3 11.3 100 1011.4 15.9 SW 18.3 0.0 3.9
19:07 11.3 11.3 100 1011.3 14.5 SW 18.3 0.0 3.9
19:08 11.3 11.3 100 1011.3 14.5 S 18.3 0.0 3.9
19:09 11.3 11.3 100 1011.2 14.5 WSW 18.3 0.0 3.9
19:10 11.4 11.4 100 1011.3 14.5 S 18.3 0.0 3.9
19:11 11.4 11.4 100 1011.4 11.4 SW 18.3 0.0 3.9
19:12 11.4 11.4 100 1011.2 12.1 S 18.3 0.0 3.9
19:13 11.4 11.4 100 1011.3 15.9 S 18.3 0.0 3.9
19:14 11.4 11.4 100 1011.4 17.4 SW 18.3 0.0 3.9
19:15 11.4 11.4 100 1011.1 16.8 SW 18.3 0.0 3.9
19:16 11.4 11.4 100 1011.2 16.8 SW 17.4 0.0 3.9
19:17 11.4 11.4 100 1011.2 13.6 SW 17.4 0.0 3.9
19:18 11.4 11.4 100 1011.4 17.4 WSW 17.4 0.0 3.9
19:19 11.4 11.4 100 1011.3 17.4 SSW 17.4 0.0 3.9
19:20 11.4 11.4 100 1011.3 15.2 S 17.4 0.0 3.9
19:21 11.4 11.4 100 1011.5 12.1 SSE 17.4 0.0 3.9
19:22 11.4 11.4 100 1011.3 14.5 SW 17.4 0.0 3.9
19:23 11.4 11.4 100 1011.6 13.6 S 17.4 0.0 3.9
19:25 11.4 11.4 100 1011.4 15.2 SW 17.4 0.0 3.9
19:26 11.4 11.4 100 1011.6 13.0 SW 17.4 0.0 3.9
19:27 11.4 11.4 100 1011.4 17.4 SW 17.4 0.0 3.9
19:28 11.4 11.4 100 1011.3 16.8 SW 17.4 0.0 3.9
19:29 11.4 11.4 100 1011.3 16.8 SW 17.4 0.0 3.9
19:30 11.4 11.4 100 1011.6 16.8 S 17.4 0.0 3.9
19:31 11.4 11.4 100 1011.6 16.8 S 17.4 0.0 3.9
19:32 11.4 11.4 100 1011.5 13.0 SSW 17.4 0.0 3.9
19:33 11.4 11.4 100 1011.5 16.8 SW 17.4 0.0 3.9
19:34 11.4 11.4 100 1011.5 17.4 S 17.4 0.0 3.9
19:35 11.4 11.4 100 1011.7 13.6 S 17.4 0.0 3.9
19:36 11.4 11.4 100 1011.7 16.8 S 17.4 0.0 3.9
19:37 11.5 11.5 100 1011.5 17.4 SW 17.4 0.0 3.9
19:38 11.5 11.5 100 1011.7 16.8 S 17.4 0.0 3.9
19:39 11.5 11.5 100 1011.5 13.6 SW 19.7 0.0 3.9
19:40 11.5 11.5 100 1011.6 20.6 SW 20.6 0.0 3.9
19:41 11.5 11.5 100 1011.6 20.6 SW 20.6 0.0 3.9
19:42 11.5 11.5 100 1011.7 14.5 S 20.6 0.0 3.9
19:44 11.5 11.5 100 1011.6 14.5 SW 20.6 0.0 3.9
19:45 11.5 11.5 100 1011.8 14.5 SW 20.6 0.0 3.9
19:46 11.5 11.5 100 1011.7 12.1 SW 20.6 0.0 3.9
19:47 11.5 11.5 100 1011.6 12.1 SW 20.6 0.0 3.9
19:48 11.5 11.5 100 1011.8 14.5 SW 20.6 0.0 3.9
19:49 11.5 11.5 100 1012.0 12.1 SW 20.6 0.0 3.9
19:50 11.5 11.5 100 1011.9 11.4 SW 20.6 0.0 3.9
19:51 11.5 11.5 100 1011.5 13.6 S 20.6 0.0 3.9
19:52 11.5 11.5 100 1011.8 13.6 S 15.9 0.0 3.9
19:53 11.5 11.5 100 1011.4 16.8 WSW 16.8 0.0 3.9
19:54 11.5 11.5 100 1011.5 15.9 SW 16.8 0.0 3.9
19:55 11.5 11.5 100 1011.5 15.9 SW 16.8 0.0 3.9
19:56 11.5 11.5 100 1011.6 13.0 SSE 16.8 0.0 3.9
19:57 11.5 11.5 100 1011.7 14.5 SSW 16.8 0.0 3.9
19:58 11.5 11.5 100 1011.7 14.5 SSW 16.8 0.0 3.9
19:59 11.5 11.5 100 1011.6 17.4 W 17.4 0.0 3.9
20:00 11.5 11.5 100 1011.4 17.4 W 17.4 0.0 3.9
20:01 11.5 11.5 100 1011.6 17.4 W 17.4 0.0 3.9
20:03 11.5 11.5 100 1011.5 13.6 SW 17.4 0.0 3.9
20:04 11.5 11.5 100 1011.7 13.6 SW 17.4 0.0 3.9
20:05 11.5 11.5 100 1011.7 13.6 SW 17.4 0.0 3.9
20:06 11.5 11.5 100 1011.3 15.9 S 17.4 0.0 3.9
20:07 11.5 11.5 100 1011.6 15.9 S 17.4 0.0 3.9
20:08 11.5 11.5 100 1011.5 15.9 S 17.4 0.0 3.9
20:09 11.5 11.5 100 1011.7 13.6 S 17.4 0.0 3.9
20:10 11.5 11.5 100 1011.5 13.0 W 17.4 0.0 3.9
20:11 11.5 11.5 100 1011.5 14.5 S 17.4 0.0 3.9
20:12 11.5 11.5 100 1011.5 15.9 SSW 15.9 0.0 3.9
20:13 11.5 11.5 100 1011.7 14.5 S 15.9 0.0 3.9
20:14 11.5 11.5 100 1011.5 18.3 SW 18.3 0.0 4.0
20:15 11.5 11.5 100 1011.7 15.2 SW 18.3 0.8 4.0
20:16 11.5 11.5 100 1011.4 16.8 S 18.3 0.8 4.0
20:17 11.5 11.5 100 1011.7 15.9 SW 18.3 0.8 4.0
20:18 11.5 11.5 100 1011.7 15.9 S 18.3 0.8 4.0
20:19 11.5 11.5 100 1011.6 15.9 S 18.3 0.8 4.0
20:20 11.5 11.5 100 1011.6 15.9 S 18.3 0.0 4.0
20:21 11.5 11.5 100 1011.6 13.0 SSW 18.3 0.0 4.0
20:23 11.5 11.5 100 1011.5 15.9 SW 18.3 0.0 4.0
20:24 11.5 11.5 100 1011.5 15.9 SW 18.3 0.0 4.0
20:25 11.5 11.5 100 1011.5 18.3 S 18.3 0.0 4.0
20:26 11.6 11.6 100 1011.6 15.2 S 18.3 0.0 4.0
20:27 11.6 11.6 100 1011.4 17.4 S 18.3 0.0 4.0
20:28 11.6 11.6 100 1011.5 19.0 S 19.0 0.0 4.0
20:29 11.5 11.5 100 1011.7 19.0 S 19.0 0.0 4.0
20:30 11.6 11.6 100 1011.5 18.3 S 19.0 0.0 4.0
20:31 11.6 11.6 100 1011.2 13.6 SW 19.0 0.0 4.0
20:32 11.6 11.6 100 1011.3 14.5 SSW 19.0 0.0 4.0
20:33 11.5 11.5 100 1011.5 15.9 SSW 19.0 0.0 4.0
20:34 11.6 11.6 100 1011.6 15.2 S 19.0 0.0 4.0
20:35 11.6 11.6 100 1011.3 17.4 S 19.0 0.0 4.0
20:36 11.6 11.6 100 1011.5 15.9 S 19.0 0.0 4.0
20:37 11.6 11.6 100 1011.6 16.8 S 19.0 0.0 4.0
20:38 11.6 11.6 100 1011.5 13.6 S 19.0 0.0 4.0
20:39 11.5 11.5 100 1011.5 13.6 SSW 18.3 0.0 4.0
20:41 11.5 11.5 100 1011.6 15.9 SSW 17.4 0.0 4.0
20:42 11.5 11.5 100 1011.6 15.9 S 17.4 0.0 4.0
20:43 11.5 11.5 100 1011.5 14.5 SW 17.4 0.0 4.0
20:44 11.5 11.5 100 1011.6 14.5 S 17.4 0.0 4.0
20:45 11.5 11.5 100 1011.5 14.5 S 17.4 0.0 4.0
20:46 11.5 11.5 100 1011.6 13.0 SW 16.8 0.0 4.0
20:47 11.5 11.5 100 1011.4 13.6 SSE 16.8 0.0 4.0
20:48 11.5 11.5 100 1011.5 14.5 S 15.9 0.0 4.0
20:49 11.5 11.5 100 1011.5 19.0 SSW 19.0 0.0 4.0
20:50 11.5 11.5 100 1011.5 13.6 S 19.0 0.0 4.0
20:51 11.5 11.5 100 1011.6 13.6 WSW 19.0 0.0 4.0
20:52 11.5 11.5 100 1011.6 13.6 WSW 19.0 0.0 4.0
20:53 11.5 11.5 100 1011.5 15.2 SSW 19.0 0.0 4.0
20:54 11.5 11.5 100 1011.5 13.6 SW 19.0 0.0 4.0
20:55 11.5 11.5 100 1011.2 15.2 SW 19.0 0.0 4.0
20:56 11.5 11.5 100 1011.5 16.8 SW 19.0 0.0 4.0
20:57 11.5 11.5 100 1011.3 14.5 S 19.0 0.0 4.0
20:58 11.5 11.5 100 1011.5 16.8 SSE 19.0 0.0 4.0
20:59 11.5 11.5 100 1011.5 13.6 SW 19.0 0.0 4.0
21:01 11.5 11.5 100 1011.6 13.6 SW 18.3 0.0 4.0
21:02 11.5 11.5 100 1011.6 13.6 SW 18.3 0.0 4.0
21:03 11.5 11.5 100 1011.3 13.6 SW 18.3 0.0 4.0
21:04 11.5 11.5 100 1011.7 13.6 SW 16.8 0.0 4.0
21:05 11.5 11.5 100 1011.6 13.6 SW 16.8 0.0 4.0
21:06 11.5 11.5 100 1011.6 13.6 SW 16.8 0.0 4.0
21:07 11.5 11.5 100 1011.6 12.1 S 16.8 0.0 4.0
21:08 11.5 11.5 100 1011.6 15.2 SW 16.8 0.0 4.0
21:09 11.5 11.5 100 1011.4 13.0 S 15.2 0.0 4.0
21:10 11.6 11.6 100 1011.6 18.3 S 18.3 0.0 4.0
21:11 11.6 11.6 100 1011.7 18.3 S 18.3 0.0 4.0
21:12 11.6 11.6 100 1011.7 18.3 WSW 18.3 0.0 4.0
21:13 11.6 11.6 100 1011.6 15.9 S 18.3 0.0 4.0
21:14 11.6 11.6 100 1011.5 15.9 S 18.3 0.0 4.0
21:15 11.6 11.6 100 1011.7 13.0 S 18.3 0.0 4.0
21:16 11.6 11.6 100 1011.4 14.5 SSW 18.3 0.0 4.0
21:17 11.6 11.6 100 1011.6 15.9 WSW 18.3 0.0 4.0
21:18 11.6 11.6 100 1011.7 15.9 SSW 18.3 0.0 4.0
21:19 11.6 11.6 100 1011.7 14.5 S 18.3 0.0 4.0
21:20 11.6 11.6 100 1011.8 15.2 S 18.3 0.0 4.0
21:21 11.6 11.6 100 1011.6 15.2 S 18.3 0.0 4.0
21:22 11.6 11.6 100 1011.6 15.9 SW 15.9 0.0 4.0
21:23 11.6 11.6 100 1011.7 19.7 WSW 19.7 0.0 4.0
21:24 11.6 11.6 100 1011.8 19.7 S 19.7 0.0 4.0
21:25 11.5 11.5 100 1011.7 16.8 WSW 19.7 0.8 4.0
21:27 11.5 11.5 100 1011.7 12.1 SW 19.7 0.8 4.0
21:28 11.5 11.5 100 1011.7 13.0 SE 19.7 0.8 4.0
21:29 11.5 11.5 100 1011.7 13.0 SE 19.7 0.8 4.0
21:30 11.5 11.5 100 1011.6 15.2 S 19.7 0.0 4.0
21:31 11.5 11.5 100 1011.5 13.6 E 19.7 0.0 4.0
21:32 11.5 11.5 100 1011.6 15.2 SSW 19.7 0.8 4.1
21:33 11.5 11.5 100 1011.7 15.2 SW 19.7 0.8 4.1
21:34 11.5 11.5 100 1011.6 18.3 SW 19.7 0.8 4.1
21:35 11.5 11.5 100 1011.7 15.2 S 18.3 0.8 4.1
21:36 11.5 11.5 100 1011.8 16.8 SW 18.3 0.8 4.1
21:37 11.6 11.6 100 1011.9 18.3 S 18.3 0.0 4.1
21:38 11.6 11.6 100 1011.6 17.4 SW 19.0 0.0 4.1
21:39 11.6 11.6 100 1011.6 13.0 SW 19.0 0.0 4.1
21:40 11.6 11.6 100 1011.7 19.7 SW 19.7 0.0 4.2
21:41 11.6 11.6 100 1011.6 13.6 SSW 19.7 0.8 4.2
21:42 11.6 11.6 100 1011.8 15.9 S 19.7 0.8 4.2
21:43 11.6 11.6 100 1011.8 21.3 SSW 21.3 0.8 4.2
21:44 11.6 11.6 100 1011.7 17.4 S 21.3 0.8 4.2
21:45 11.6 11.6 100 1011.7 15.2 S 21.3 0.8 4.2
21:46 11.6 11.6 100 1011.8 12.1 SW 21.3 0.0 4.2
21:48 11.6 11.6 100 1011.7 16.8 S 21.3 0.0 4.2
21:49 11.6 11.6 100 1011.7 16.8 S 21.3 0.0 4.2
21:50 11.6 11.6 100 1011.7 16.8 N 21.3 0.0 4.2
21:51 11.6 11.6 100 1011.6 20.6 SW 21.3 0.0 4.2
21:52 11.6 11.6 100 1012.1 20.6 WSW 21.3 0.0 4.2
21:53 11.6 11.6 100 1011.8 20.6 SE 21.3 0.0 4.2
21:54 11.6 11.6 100 1011.7 19.0 S 22.1 0.0 4.2
21:55 11.6 11.6 100 1011.9 18.3 SSW 22.1 0.0 4.2
21:56 11.6 11.6 100 1011.8 14.5 S 22.1 0.0 4.2
21:57 11.6 11.6 100 1011.6 13.6 S 22.1 0.0 4.2
21:58 11.6 11.6 100 1011.7 19.0 SW 22.1 0.0 4.2
21:59 11.6 11.6 100 1011.5 13.0 S 22.1 0.0 4.2
22:00 11.6 11.6 100 1011.9 18.3 SW 22.1 0.0 4.2
22:01 11.6 11.6 100 1011.6 14.5 SW 22.1 0.0 4.2
22:02 11.6 11.6 100 1011.6 15.2 SW 22.1 0.0 4.2
22:03 11.6 11.6 100 1011.5 17.4 SE 22.1 0.0 4.2
22:04 11.6 11.6 100 1011.4 17.4 WSW 21.3 0.0 4.2
22:05 11.6 11.6 100 1011.7 14.5 WSW 21.3 0.0 4.2
22:07 11.6 11.6 100 1011.4 17.4 SSW 21.3 0.0 4.2
22:08 11.6 11.6 100 1011.4 17.4 SW 20.6 0.0 4.2
22:09 11.6 11.6 100 1011.4 17.4 SW 20.6 0.0 4.2
22:10 11.6 11.6 100 1011.5 21.3 WSW 21.3 0.0 4.2
22:11 11.6 11.6 100 1011.4 16.8 WSW 21.3 0.0 4.2
22:12 11.6 11.6 100 1011.4 17.4 S 21.3 0.0 4.2
22:13 11.6 11.6 100 1011.7 15.2 WSW 21.3 0.0 4.2
22:14 11.6 11.6 100 1011.6 12.1 W 21.3 0.0 4.2
22:15 11.6 11.6 100 1011.3 13.0 SSW 21.3 0.0 4.2
22:16 11.6 11.6 100 1011.6 13.6 WSW 21.3 0.0 4.2
22:17 11.6 11.6 100 1011.4 15.9 WSW 21.3 0.0 4.2
22:18 11.6 11.6 100 1011.7 13.6 SW 21.3 0.0 4.2
22:19 11.6 11.6 100 1011.5 17.4 WSW 21.3 0.0 4.2
22:20 11.6 11.6 100 1011.4 13.0 NW 21.3 0.0 4.2
22:21 11.6 11.6 100 1011.6 13.0 WSW 18.3 0.0 4.2
22:22 11.6 11.6 100 1011.4 22.1 S 22.1 0.0 4.2
22:23 11.6 11.6 100 1011.7 15.2 W 22.1 0.0 4.2
22:24 11.6 11.6 100 1011.8 14.5 WSW 22.1 0.0 4.2
22:26 11.6 11.6 100 1011.8 11.4 WSW 22.1 0.0 4.2
22:27 11.6 11.6 100 1011.7 21.3 E 22.1 0.0 4.2
22:28 11.6 11.6 100 1011.7 21.3 E 22.1 0.0 4.2
22:29 11.6 11.6 100 1011.7 13.0 S 22.1 0.0 4.2
22:30 11.6 11.6 100 1011.9 22.1 SSW 22.1 0.0 4.2
22:31 11.6 11.6 100 1011.6 17.4 WSW 22.1 0.0 4.2
22:32 11.6 11.6 100 1011.5 17.4 WSW 22.1 0.0 4.2
22:33 11.6 11.6 100 1011.8 14.5 WSW 22.1 0.0 4.2
22:34 11.6 11.6 100 1011.6 18.3 S 22.1 0.0 4.2
22:35 11.6 11.6 100 1011.6 17.4 WSW 22.1 0.0 4.2
22:36 11.7 11.7 100 1011.6 22.8 S 22.8 0.0 4.2
22:37 11.7 11.7 100 1011.4 18.3 SE 22.8 0.0 4.2
22:38 11.7 11.7 100 1011.7 18.3 SE 22.8 0.0 4.2
22:39 11.7 11.7 100 1011.5 12.1 SSW 22.8 0.0 4.2
22:40 11.6 11.6 100 1011.4 13.6 SSW 22.8 0.0 4.2
22:41 11.6 11.6 100 1011.5 17.4 WSW 22.8 0.0 4.2
22:42 11.6 11.6 100 1011.6 14.5 SSW 22.8 0.8 4.2
22:43 11.6 11.6 100 1011.6 18.3 S 22.8 0.8 4.2
22:45 11.6 11.6 100 1011.7 19.0 SSW 22.8 0.8 4.2
22:46 11.6 11.6 100 1011.5 17.4 WSW 19.0 0.8 4.2
22:47 11.6 11.6 100 1011.5 15.9 WSW 19.0 0.0 4.2
22:48 11.6 11.6 100 1011.5 14.5 S 19.0 0.0 4.2
22:49 11.6 11.6 100 1011.6 17.4 SSE 19.0 0.0 4.2
22:50 11.6 11.6 100 1011.5 16.8 S 19.7 0.0 4.2
22:51 11.6 11.6 100 1011.5 16.8 WSW 19.7 0.0 4.2
22:52 11.6 11.6 100 1011.5 16.8 WSW 19.7 0.0 4.2
22:53 11.6 11.6 100 1011.6 10.7 S 19.7 0.0 4.2
22:54 11.6 11.6 100 1011.7 17.4 WSW 19.7 0.8 4.3
22:55 11.6 11.6 100 1011.6 17.4 WSW 19.7 0.8 4.3
22:56 11.6 11.6 100 1011.5 15.2 SSE 19.7 0.8 4.3
22:57 11.6 11.6 100 1011.6 16.8 S 19.7 0.8 4.3
22:58 11.6 11.6 100 1011.5 16.8 S 19.7 0.8 4.3
22:59 11.6 11.6 100 1011.6 20.6 S 20.6 0.0 4.3
23:00 11.6 11.6 100 1011.7 20.6 S 20.6 0.0 4.3
23:01 11.6 11.6 100 1011.6 20.6 S 20.6 0.0 4.3
23:02 11.6 11.6 100 1011.6 20.6 S 20.6 0.0 4.3
23:04 11.6 11.6 100 1011.6 20.6 S 20.6 0.0 4.3
23:05 11.6 11.6 100 1011.6 20.6 S 20.6 0.0 4.3
23:06 11.6 11.6 100 1011.7 14.5 WSW 20.6 0.0 4.3
23:07 11.6 11.6 100 1011.5 15.9 WSW 20.6 0.0 4.3
23:08 11.6 11.6 100 1011.6 11.4 WSW 20.6 0.0 4.3
23:09 11.6 11.6 100 1011.8 15.9 WSW 20.6 0.0 4.3
23:10 11.6 11.6 100 1011.5 20.6 WSW 20.6 0.0 4.3
23:11 11.6 11.6 100 1011.6 15.2 WSW 20.6 0.0 4.3
23:12 11.6 11.6 100 1011.8 13.0 NW 20.6 0.0 4.3
23:13 11.6 11.6 100 1011.7 14.5 WSW 20.6 0.0 4.3
23:14 11.6 11.6 100 1011.4 15.9 WSW 20.6 0.0 4.3
23:15 11.6 11.6 100 1011.6 13.6 S 20.6 0.0 4.3
23:16 11.6 11.6 100 1011.6 13.0 S 20.6 0.0 4.3
23:17 11.6 11.6 100 1011.4 16.8 WSW 20.6 0.0 4.3
23:18 11.6 11.6 100 1011.4 19.7 WSW 20.6 0.0 4.3
23:19 11.6 11.6 100 1011.6 17.4 SSW 20.6 0.0 4.3
23:20 11.6 11.6 100 1011.7 19.7 SSW 20.6 0.0 4.3
23:21 11.6 11.6 100 1011.5 19.7 WSW 19.7 0.0 4.3
23:22 11.6 11.6 100 1011.5 15.2 WSW 19.7 0.0 4.3
23:23 11.6 11.6 100 1011.6 19.7 S 19.7 0.0 4.3
23:24 11.6 11.6 100 1011.6 19.7 WSW 19.7 0.0 4.3
23:25 11.6 11.6 100 1011.6 22.1 S 22.1 0.0 4.3
23:26 11.6 11.6 100 1011.6 21.3 WSW 22.1 0.0 4.3
23:27 11.6 11.6 100 1011.7 20.6 SSW 22.1 0.0 4.3
23:28 11.6 11.6 100 1011.5 22.1 WSW 22.1 0.0 4.3
23:30 11.6 11.6 100 1011.6 19.0 WSW 22.8 0.0 4.3
23:31 11.6 11.6 100 1011.5 19.0 WSW 22.8 0.0 4.3
23:32 11.6 11.6 100 1011.7 20.6 SSW 22.8 0.0 4.3
23:33 11.6 11.6 100 1011.7 18.3 SSW 22.8 0.0 4.3
23:34 11.6 11.6 100 1011.7 19.0 S 22.8 0.0 4.3
23:35 11.6 11.6 100 1011.8 15.2 S 22.8 0.0 4.3
23:36 11.6 11.6 100 1011.5 14.5 SSW 22.8 0.0 4.3
23:37 11.6 11.6 100 1011.9 15.2 WSW 22.8 0.0 4.3
23:38 11.6 11.6 100 1011.8 14.5 WSW 22.8 0.0 4.3
23:39 11.6 11.6 100 1011.6 15.9 S 22.8 0.0 4.3
23:40 11.6 11.6 100 1011.6 16.8 NW 20.6 0.0 4.3
23:41 11.6 11.6 100 1011.8 18.3 S 20.6 0.0 4.3
23:42 11.6 11.6 100 1011.9 16.8 WSW 20.6 0.0 4.3
23:43 11.7 11.7 100 1011.8 16.8 S 20.6 0.0 4.3
23:44 11.7 11.7 100 1011.7 16.8 SSW 20.6 0.0 4.3
23:45 11.7 11.7 100 1011.7 19.0 WSW 20.6 0.0 4.3
23:46 11.7 11.7 100 1011.7 19.0 SSW 20.6 0.0 4.3
23:47 11.7 11.7 100 1011.5 21.3 S 21.3 0.0 4.3
23:49 11.7 11.7 100 1011.6 16.8 WSW 21.3 0.0 4.3
23:50 11.7 11.7 100 1011.5 16.8 WSW 21.3 0.0 4.3
23:51 11.7 11.7 100 1011.9 15.9 S 21.3 0.0 4.3
23:52 11.7 11.7 100 1011.8 15.9 WSW 21.3 0.0 4.3
23:53 11.7 11.7 100 1011.7 13.6 WSW 21.3 0.0 4.3
23:54 11.7 11.7 100 1011.9 20.6 S 21.3 0.0 4.3
23:55 11.7 11.7 100 1011.8 21.3 S 21.3 0.0 4.3
23:56 11.7 11.7 100 1011.7 21.3 WSW 21.3 0.0 4.3
23:57 11.7 11.7 100 1011.8 16.8 WSW 21.3 0.0 4.3
23:58 11.7 11.7 100 1011.8 13.6 WSW 21.3 0.0 4.3
23:59 11.7 11.7 100 1011.8 17.4 S 21.3 0.8 4.3

 

 

UK - WEATHER STATION TOPSITES - UK

Copyright © Carnkie Weather 2009 - 2024.